GFSSE_850_spd_021.txt.gz
Wind_Speed
27 28 25 24 24 22 22 21 19 18 17 16 14 14 14 15 16 17 17 17 17 18 18 19 19 19 19 19 19 18 18 17 17 17 13 14 16 15 11 9 9 10 11
36 30 28 25 24 23 23 21 19 17 17 16 13 14 15 16 16 17 17 16 17 18 20 21 23 24 24 24 23 21 19 16 14 15 11 14 18 16 11 10 10 10 10
35 28 28 27 26 24 23 20 18 17 16 15 14 14 15 17 17 16 16 16 17 19 22 23 25 25 26 25 24 22 17 13 16 16 12 15 19 15 10 10 11 10 11
32 35 29 27 26 24 22 20 18 16 15 14 15 14 15 17 16 15 16 17 19 21 22 24 24 25 25 22 19 19 22 16 12 13 13 13 19 15 13 12 11 11 11
36 34 30 27 25 23 22 20 18 15 15 14 15 15 16 16 15 16 18 18 20 21 22 22 23 24 24 25 20 15 19 19 14 15 13 15 23 21 16 13 12 11 10
35 33 30 25 23 24 21 19 17 14 14 14 15 15 15 14 15 17 19 19 19 19 19 18 18 20 21 23 22 16 17 22 15 12 14 12 18 23 19 17 15 12 11
36 34 30 24 22 23 20 15 14 14 14 13 14 15 14 15 16 18 18 18 17 16 15 15 15 17 18 20 20 18 15 18 20 16 10 13 19 23 19 16 16 15 14
38 33 30 24 17 22 18 16 14 13 14 14 14 14 14 15 16 16 16 15 14 13 12 12 12 15 16 18 18 16 16 21 20 15 13 17 20 21 21 16 15 15 15
32 28 24 26 25 17 18 17 14 12 13 13 15 15 15 15 14 13 12 11 10 9 9 9 11 12 12 13 14 12 11 16 19 12 18 19 19 18 22 16 15 14 14
24 21 27 28 15 17 17 15 14 13 13 14 16 17 16 14 12 11 7 7 6 7 8 9 12 10 10 11 8 9 7 10 14 15 16 18 18 20 21 16 13 13 12
22 18 21 23 18 17 17 16 14 14 15 18 17 15 14 10 10 10 11 9 9 10 8 10 12 9 5 10 13 10 12 13 13 14 14 17 19 19 19 19 14 11 12
31 30 23 20 18 16 15 15 17 18 19 20 16 13 9 8 7 10 9 8 11 6 6 8 6 8 8 7 9 13 13 13 11 11 17 20 18 20 20 18 17 13 11
25 28 24 23 20 16 17 22 17 16 16 18 13 13 10 9 9 5 3 6 4 5 1 2 2 4 3 5 9 13 16 15 11 16 12 16 17 18 19 19 17 17 13
28 27 27 24 19 20 22 21 20 19 17 17 14 14 11 11 7 7 5 5 3 3 3 4 6 9 10 11 10 9 10 12 13 14 16 17 20 17 21 22 18 16 16
30 30 28 24 19 19 19 24 17 16 14 12 10 9 8 6 2 6 11 9 11 7 9 11 12 12 10 9 8 9 11 12 13 14 13 15 16 18 21 22 19 17 19
26 34 31 27 24 24 26 20 18 16 12 8 6 6 7 4 8 8 10 10 7 6 9 10 10 10 14 17 14 15 16 17 17 14 11 16 20 19 21 19 16 16 19
21 34 28 27 26 23 22 22 19 19 11 3 6 4 7 3 0 2 4 7 6 5 6 10 14 16 17 15 16 20 15 14 16 17 16 16 19 19 17 16 18 17 17
18 30 26 25 27 22 19 20 24 22 3 7 6 6 3 3 5 4 2 3 5 8 12 13 15 13 14 20 22 19 13 15 18 18 21 15 18 20 16 18 16 16 12
17 20 22 23 23 20 18 21 25 14 6 4 1 5 6 6 4 0 2 7 9 10 11 13 15 18 23 25 22 20 15 14 15 12 17 14 13 11 11 14 18 17 13
22 24 22 24 23 19 19 24 23 11 4 4 9 7 5 3 3 4 6 7 9 12 15 16 19 22 22 21 23 19 16 12 14 13 12 6 6 8 7 10 15 18 18
25 25 22 21 21 20 20 25 19 12 12 11 7 5 5 4 5 8 8 12 15 17 19 21 22 21 21 21 20 21 21 18 9 12 14 12 14 14 15 16 19 22 22
29 21 22 20 15 18 16 19 13 16 15 9 8 9 9 7 6 9 12 15 16 18 20 19 19 21 17 16 19 19 12 21 6 10 15 17 20 17 14 15 17 15 13
27 24 18 20 17 19 20 18 20 18 16 14 11 10 8 7 8 13 15 17 18 21 21 22 21 18 17 16 17 14 9 5 21 11 19 11 17 19 17 15 17 16 13
22 21 15 15 22 24 22 22 25 24 22 18 14 12 10 10 13 17 20 19 20 20 20 21 20 19 20 22 18 14 16 16 17 15 12 12 11 15 22 22 17 19 20
19 16 9 25 21 22 29 25 23 22 21 22 22 16 9 11 15 19 20 19 18 19 18 15 15 16 18 16 16 17 18 20 19 17 23 21 20 19 22 16 20 23 24
20 18 21 24 29 30 25 26 25 27 28 24 19 13 11 15 18 16 15 16 17 16 15 14 15 17 19 20 20 23 17 12 13 14 18 21 24 22 19 21 24 26 28

GFSSE_850_spd_024.txt.gz
Wind_Speed
32 32 31 28 25 24 23 22 21 20 18 17 16 18 19 21 22 21 20 20 20 21 23 23 23 22 21 20 20 18 16 16 17 14 19 21 20 15 12 10 10 10 11
37 33 32 29 27 25 24 22 20 19 18 17 17 19 21 22 22 20 20 20 22 24 25 26 26 26 25 22 19 14 15 16 19 17 20 24 21 15 14 13 12 12 11
38 35 33 30 28 25 23 21 20 19 18 18 19 20 22 21 21 20 20 22 23 25 26 27 27 24 22 20 20 16 14 18 18 20 20 24 23 18 13 12 12 12 12
36 34 32 32 29 26 24 22 20 18 18 19 20 21 21 20 21 22 22 22 24 26 26 27 26 25 20 18 21 19 19 15 17 17 16 17 22 22 18 15 13 12 11
38 37 34 32 30 27 24 22 20 19 18 20 21 20 20 20 22 22 22 22 23 24 23 22 23 23 21 17 22 23 19 15 13 13 13 16 21 23 18 17 16 15 13
37 35 34 32 30 26 23 21 19 18 19 19 20 19 19 21 22 22 21 21 21 20 20 19 20 20 20 18 17 20 16 15 15 13 13 18 21 22 21 16 15 16 15
37 36 34 30 29 26 22 20 18 17 19 19 20 19 18 21 22 21 20 20 18 17 17 17 17 17 19 16 16 16 17 13 15 16 16 18 19 20 22 18 14 14 14
37 38 36 34 32 28 21 19 18 16 17 18 19 18 19 21 21 20 18 17 16 15 13 14 14 13 14 13 12 11 14 14 12 13 15 16 17 18 20 19 15 12 11
27 37 33 37 41 27 17 12 12 15 16 18 19 19 19 19 19 17 16 14 12 11 11 12 10 8 10 10 11 8 10 12 13 12 13 14 16 17 18 18 16 12 9
27 34 30 36 34 31 22 18 15 15 16 19 19 19 19 18 16 13 12 11 11 9 10 11 8 7 5 4 10 7 10 12 12 14 14 15 17 19 17 16 16 14 12
20 8 18 35 22 20 20 19 18 17 19 20 20 19 18 17 15 14 14 13 10 9 9 6 4 4 1 5 7 9 11 14 16 15 13 17 17 19 17 17 15 14 13
27 34 32 31 24 22 20 20 19 20 21 20 17 16 16 14 16 14 12 9 8 7 7 3 2 1 0 2 4 8 11 11 12 10 16 15 18 17 18 17 19 19 16
33 33 30 25 23 23 22 22 22 23 22 21 18 14 13 12 12 11 9 5 6 5 4 3 2 2 2 6 9 9 5 7 8 9 11 14 16 18 21 20 24 20 17
26 25 25 25 24 24 22 22 22 22 20 17 17 14 11 10 7 6 9 9 4 4 5 6 7 7 10 11 12 10 8 10 12 12 11 7 11 14 14 16 20 19 16
27 24 24 24 23 25 22 21 22 22 19 16 15 13 13 11 8 9 11 10 7 4 8 11 13 14 11 10 10 8 9 12 14 15 14 11 9 12 13 17 18 16 15
25 26 27 25 27 25 22 20 20 19 18 15 12 12 12 12 10 10 12 12 9 7 9 11 11 11 13 14 14 12 17 17 14 15 17 17 14 9 13 16 14 13 10
26 28 29 25 26 22 23 19 19 19 16 10 9 12 11 12 13 10 8 7 6 5 7 9 11 13 14 15 15 16 16 9 10 14 18 20 17 12 11 10 9 10 12
30 32 28 29 27 24 26 22 20 18 12 5 4 5 8 8 7 6 5 4 3 7 10 13 15 16 16 19 21 16 13 11 9 11 15 17 13 6 5 7 8 12 15
33 34 33 30 28 26 27 25 23 21 9 3 3 7 8 7 7 7 6 4 7 10 12 14 17 19 22 22 18 18 12 7 8 9 11 8 4 6 3 8 7 9 12
30 34 33 32 30 27 25 26 27 24 14 7 6 8 9 9 8 5 5 6 9 12 17 19 20 21 20 20 19 15 12 10 12 9 6 6 5 2 2 4 10 14 20
30 33 31 30 31 30 31 30 28 26 20 13 11 11 11 8 5 6 8 11 15 20 21 20 19 19 19 19 17 17 18 6 6 9 11 10 11 12 13 14 15 15 14
30 30 30 30 31 30 26 25 27 26 20 13 13 11 9 9 10 8 9 14 18 19 19 19 19 20 18 16 16 18 4 16 4 4 13 16 17 17 17 15 14 11 10
34 31 30 29 26 26 24 26 27 21 19 19 17 14 14 15 12 10 14 19 20 19 19 19 20 18 16 16 18 14 6 4 16 6 10 7 12 15 18 19 15 12 14
38 30 25 25 27 27 26 29 31 28 28 25 19 19 19 16 12 13 18 20 17 19 18 18 17 16 16 15 17 16 14 16 13 8 13 15 13 15 15 17 21 17 18
31 29 21 25 26 26 29 30 26 26 23 23 24 21 17 14 13 16 18 17 18 17 17 16 14 13 14 16 16 16 17 20 21 19 16 14 18 18 15 14 15 20 23
24 23 19 22 28 31 30 29 28 27 28 29 26 21 16 15 17 18 18 16 15 16 16 15 13 13 15 19 19 19 17 12 14 15 18 20 21 19 18 18 20 23 25

GFSSE_850_spd_030.txt.gz
Wind_Speed
33 32 28 27 25 24 24 23 21 20 18 17 18 21 23 24 24 24 24 25 26 26 25 24 23 22 23 23 23 23 21 21 22 24 26 23 21 18 17 15 14 13 11
39 35 31 29 27 26 24 23 22 20 18 19 21 24 24 25 25 28 28 27 27 27 25 23 22 21 20 21 21 21 21 22 22 24 25 24 23 21 18 17 16 14 13
36 36 32 29 28 27 25 24 22 21 20 22 24 24 24 26 28 30 29 27 26 26 24 22 21 20 20 19 18 19 19 20 20 22 22 23 23 21 19 18 17 15 13
32 34 32 29 28 28 27 26 24 23 23 25 26 25 26 29 30 30 29 27 25 23 22 21 20 18 16 16 16 16 17 17 17 17 18 19 21 21 19 18 17 16 15
30 31 30 30 30 29 28 25 23 23 25 26 26 26 28 30 31 30 29 27 24 23 21 20 18 16 15 15 14 14 15 14 14 15 16 17 17 19 19 17 15 14 13
29 31 31 28 29 28 26 25 23 25 26 27 26 27 29 30 30 29 27 26 24 21 19 19 17 15 14 15 16 15 13 12 13 15 15 15 15 16 17 16 15 13 12
27 31 31 29 30 26 24 24 23 26 26 26 26 27 29 30 29 26 25 23 22 21 17 17 17 16 14 14 15 14 13 11 12 13 13 14 14 15 16 15 13 13 11
28 30 27 29 25 26 24 22 23 25 25 24 25 26 28 28 26 24 22 20 18 16 15 11 11 13 12 13 11 11 12 11 12 12 12 12 13 15 16 15 14 13 12
28 23 29 31 32 28 23 21 23 23 23 23 24 26 26 26 24 21 18 16 14 12 11 9 7 8 8 9 9 10 11 13 13 12 12 14 13 15 14 15 15 15 14
23 22 21 30 38 29 24 22 22 21 23 22 23 24 25 24 22 19 16 13 11 9 7 6 4 4 5 7 7 9 10 12 14 13 14 16 15 15 15 15 14 15 16
18 21 30 42 34 24 22 21 20 18 16 20 23 24 24 22 19 16 14 11 7 4 3 3 4 3 5 7 9 11 11 12 10 10 12 12 14 16 16 16 15 17 18
26 28 40 41 30 27 25 23 15 15 20 23 23 22 21 19 17 15 12 9 6 3 2 2 3 3 5 7 8 10 10 10 10 10 9 9 9 13 16 15 15 15 14
19 16 22 35 32 30 24 19 18 20 22 22 22 20 19 17 15 12 9 7 5 5 2 1 2 3 6 8 11 10 10 11 12 13 12 9 7 7 12 14 14 13 9
22 40 50 43 33 24 16 17 19 21 23 23 21 18 16 15 12 11 8 7 7 5 3 3 4 5 7 9 8 11 11 12 14 17 19 10 7 7 8 12 12 9 6
45 37 34 31 29 25 24 22 21 23 22 20 18 16 14 11 10 11 9 9 7 5 5 7 7 6 8 9 11 13 14 16 17 19 15 11 8 7 5 7 9 8 6
37 31 29 27 24 21 21 21 23 21 20 19 15 14 12 11 10 9 8 9 9 8 7 5 5 7 10 12 14 17 18 18 16 13 12 11 12 11 8 8 7 4 2
28 27 25 23 22 22 21 22 24 20 16 15 15 11 10 11 11 10 11 11 10 8 5 5 7 10 13 15 16 16 14 14 12 11 10 9 8 8 10 11 11 6 3
23 21 21 21 22 23 23 22 20 19 17 15 13 12 13 13 13 13 13 11 9 5 4 7 9 11 13 14 13 14 14 13 13 14 12 10 9 7 8 9 10 8 11
24 22 21 21 23 25 24 21 18 18 18 16 13 12 13 14 15 14 11 9 7 5 5 8 11 12 13 14 14 14 14 14 14 13 13 12 9 5 6 9 10 11 13
26 25 23 24 25 26 23 21 21 21 20 17 14 11 14 15 13 12 11 9 7 6 7 9 11 14 15 15 14 13 14 14 12 11 9 11 8 7 8 9 10 13 16
29 28 28 27 26 26 25 25 26 26 22 20 16 10 12 13 13 14 12 9 7 6 7 10 14 16 16 16 15 16 14 9 8 8 15 12 11 15 14 12 16 17 16
31 32 32 31 30 30 29 28 27 25 23 20 17 14 13 15 16 14 11 10 9 8 10 14 17 20 20 18 16 16 6 11 11 13 12 19 17 16 12 20 17 19 18
35 35 36 36 33 33 32 30 29 29 25 24 22 19 19 18 15 13 12 12 9 9 13 17 20 22 20 19 16 12 6 4 15 15 16 13 16 11 16 16 18 19 18
35 33 33 32 32 31 30 31 32 32 31 30 25 22 20 18 17 16 14 12 10 11 15 20 26 25 20 17 15 13 12 13 9 10 8 14 15 18 15 18 18 17 15
34 32 32 33 30 32 31 31 32 33 32 28 24 24 23 20 18 17 17 13 10 11 18 30 32 23 18 14 13 14 14 14 14 15 19 16 16 13 19 19 18 17 17
37 35 35 23 34 35 33 33 36 36 33 27 28 26 24 21 20 20 16 13 13 18 24 30 21 19 17 15 14 13 10 10 12 13 17 19 20 20 20 19 18 20 21

GFSSE_850_spd_033.txt.gz
Wind_Speed
31 31 31 32 32 31 31 31 30 27 24 21 20 22 23 23 23 23 24 24 24 25 25 24 24 24 23 24 22 21 20 21 23 24 23 22 21 19 16 14 13 14 12
33 32 31 31 31 31 30 30 28 25 22 21 23 24 24 25 25 26 27 26 26 25 24 23 22 22 22 21 20 19 19 20 21 21 22 22 22 20 18 16 14 12 11
34 33 30 29 30 30 29 28 26 24 24 25 25 26 26 27 27 27 26 27 25 24 23 22 21 19 19 18 18 18 18 19 19 20 20 21 21 20 19 17 16 13 11
35 33 31 29 28 28 27 25 23 23 26 29 28 28 29 29 28 27 26 24 24 23 22 20 19 18 16 16 17 17 17 18 18 19 19 19 19 19 17 17 16 14 13
34 33 30 30 29 28 26 24 24 26 27 29 30 31 32 29 27 27 25 23 23 21 21 20 18 17 16 15 16 15 16 16 16 17 17 17 16 17 16 16 15 14 12
32 32 32 30 29 28 26 25 25 27 29 29 31 33 32 29 28 26 25 24 22 21 20 19 17 17 17 16 15 14 14 14 15 16 15 16 16 17 16 15 14 13 12
30 31 30 29 30 28 27 27 27 29 29 30 32 33 32 30 27 25 23 22 21 20 19 18 17 16 15 15 15 14 13 13 14 15 15 14 15 16 15 15 13 12 12
27 29 28 28 31 30 26 25 27 28 28 30 32 32 32 31 27 23 21 19 18 17 17 15 13 14 13 12 12 12 12 13 13 14 14 12 14 15 14 14 14 14 12
25 25 26 30 29 30 27 22 27 27 27 29 31 31 31 29 25 23 20 17 14 13 12 12 11 10 10 9 9 10 12 14 13 13 12 10 12 13 14 15 14 14 13
20 25 30 33 30 32 30 21 24 26 26 28 30 30 29 26 23 20 17 15 13 10 10 9 8 7 7 7 9 12 13 13 14 13 12 10 13 13 13 13 13 14 14
17 24 34 38 40 33 27 26 22 22 24 27 29 28 27 24 20 17 14 11 9 9 7 6 5 5 5 7 9 11 11 11 11 12 11 10 11 13 13 13 13 13 12
24 30 40 44 43 34 24 26 24 22 23 26 28 27 24 22 18 15 12 9 7 6 4 4 4 3 4 7 9 10 12 12 11 10 10 9 9 11 13 12 11 10 8
34 45 48 49 46 38 28 26 25 17 20 24 24 23 22 19 16 13 11 9 6 4 2 2 2 4 6 8 10 10 11 12 13 13 12 10 4 7 12 13 12 10 6
36 35 41 44 46 35 28 27 13 15 22 24 22 20 18 16 15 13 10 8 6 3 1 1 3 6 8 10 10 11 12 13 14 15 14 9 6 6 7 10 10 9 6
35 43 35 42 41 32 24 25 24 24 23 22 20 18 17 15 13 11 9 8 7 4 3 4 6 7 8 10 11 13 15 16 16 14 12 10 8 7 7 9 9 8 6
34 38 38 40 30 24 19 20 19 22 22 21 20 17 15 14 11 10 9 9 8 5 5 6 6 6 8 12 15 16 15 12 11 10 9 10 10 9 9 10 9 6 4
40 38 35 31 25 22 19 18 21 23 22 19 18 16 15 13 12 10 10 9 7 7 7 6 5 7 11 14 14 14 13 11 9 8 8 7 5 5 7 12 12 8 6
33 29 26 23 20 20 18 19 21 21 20 18 18 17 15 12 11 11 10 10 10 8 7 4 5 9 11 12 12 12 11 11 10 9 7 5 5 4 7 12 14 14 13
29 27 24 22 21 20 19 19 20 19 18 17 18 14 12 12 12 13 13 11 10 10 7 5 7 9 10 11 10 10 11 12 12 9 7 5 5 2 6 9 12 13 15
27 24 22 21 21 20 20 20 21 21 20 21 18 13 14 14 14 15 12 13 13 11 7 7 7 8 8 9 10 11 14 13 9 7 5 9 5 5 5 9 11 13 15
31 28 25 24 24 25 27 27 26 24 26 25 20 17 14 14 14 15 16 15 13 9 9 7 7 7 10 12 12 16 11 8 8 8 8 8 10 12 13 12 12 16 15
33 33 31 29 26 27 29 28 27 26 25 22 20 20 17 16 16 18 18 15 13 12 9 6 7 11 15 17 13 12 3 8 9 10 14 10 14 11 11 11 17 15 17
35 35 33 29 29 29 29 28 29 26 27 25 26 23 21 18 19 20 19 17 15 11 7 5 10 18 20 21 15 9 5 4 11 9 10 13 10 14 12 16 15 16 17
33 33 32 31 31 32 32 32 32 32 30 30 26 25 23 23 22 22 21 17 14 11 6 9 17 22 19 17 14 13 13 13 6 9 7 10 16 13 15 15 17 19 18
33 32 31 32 33 33 33 34 32 33 33 30 28 27 26 25 24 23 20 18 16 13 12 17 15 15 21 16 15 14 14 13 13 11 15 11 11 11 12 17 19 20 20
36 35 34 35 34 35 36 33 35 34 33 33 31 29 28 28 26 22 22 20 17 16 16 12 24 25 12 17 15 13 12 8 8 9 13 14 14 13 13 15 16 17 22

GFSSE_850_spd_036.txt.gz
Wind_Speed
23 26 28 27 28 31 32 31 29 26 23 21 19 18 20 22 22 22 22 23 24 25 24 24 24 23 21 19 19 21 22 21 22 22 22 21 20 18 16 16 17 15 13
28 30 31 30 30 32 32 30 27 25 23 21 21 23 23 24 24 24 24 25 26 24 24 23 23 22 21 20 21 21 22 21 21 24 25 22 21 20 18 16 14 13 13
28 30 33 31 31 32 32 30 27 24 22 24 25 25 25 25 25 26 27 26 24 23 23 22 21 20 19 19 19 19 20 20 21 25 20 17 19 19 17 17 15 15 13
30 29 32 33 33 32 31 29 27 25 26 28 27 27 27 27 27 28 27 25 24 24 23 21 19 19 18 18 18 18 19 18 20 21 15 15 16 17 16 15 15 15 14
29 26 30 35 34 32 30 29 28 28 29 28 28 28 28 28 28 27 26 24 23 23 21 19 18 18 18 18 17 17 17 17 22 15 15 15 13 15 15 14 14 13 12
30 28 33 34 33 32 31 30 29 31 31 29 30 29 29 28 28 26 25 23 22 21 20 19 18 19 17 17 16 15 16 17 15 13 14 15 14 15 14 13 12 12 11
30 30 33 33 33 32 31 29 30 31 30 30 31 31 29 29 27 26 24 23 21 20 20 18 18 17 16 15 15 14 15 16 12 13 12 12 13 13 14 13 12 12 10
29 26 32 30 32 31 29 28 30 31 31 33 32 31 30 28 25 24 23 21 20 18 17 17 16 14 12 12 13 13 14 15 11 12 11 10 13 12 13 12 12 11 10
23 28 32 32 30 27 27 27 32 30 31 34 32 31 29 26 25 23 21 19 17 15 14 12 12 10 10 11 11 12 13 13 10 10 9 7 11 11 12 12 11 11 11
22 26 33 35 35 35 30 27 28 29 30 33 32 30 28 25 22 20 17 16 14 13 12 10 9 9 8 8 10 12 12 14 9 9 7 8 12 10 10 11 10 11 10
23 25 35 36 34 37 38 26 24 26 27 30 31 28 26 22 19 17 15 14 12 10 10 9 8 6 6 7 9 10 12 7 8 7 5 12 10 11 12 12 10 9 8
24 34 41 40 40 42 35 36 24 23 27 30 31 28 19 20 18 16 15 11 9 8 9 7 5 4 6 5 7 8 6 8 7 7 6 11 10 10 11 12 10 8 7
25 37 38 40 46 44 38 36 27 27 29 30 30 26 22 21 17 15 14 11 8 8 8 5 3 2 2 4 5 7 10 8 7 6 8 8 5 6 10 10 10 8 7
32 36 44 44 45 42 37 30 28 27 24 22 21 24 22 18 16 13 11 10 9 8 5 2 0 2 4 6 9 11 11 8 6 6 8 5 5 7 8 11 10 8 6
31 35 38 36 33 37 38 34 34 28 23 24 28 22 17 16 15 13 12 10 9 7 3 2 2 1 5 8 9 10 11 12 10 5 4 7 5 6 8 8 10 10 7
33 41 40 43 42 39 39 34 32 21 24 26 20 17 19 15 14 13 10 9 9 7 5 3 3 2 3 8 11 11 10 8 7 5 3 8 7 6 6 8 8 7 5
29 28 36 42 32 34 24 19 18 19 23 18 16 19 17 16 14 12 11 10 9 8 8 6 2 3 7 9 9 9 8 9 7 6 3 1 5 5 7 12 14 13 10
24 29 34 27 22 20 20 24 21 20 23 17 20 20 17 17 15 13 12 11 11 10 8 6 5 3 4 3 4 7 8 8 8 5 2 1 0 2 4 10 15 17 18
28 29 32 24 18 17 16 17 19 21 22 19 21 19 17 16 13 16 13 13 12 11 11 9 3 2 3 3 5 7 7 4 3 1 1 1 2 1 4 8 13 16 17
25 26 25 23 21 18 17 19 17 20 20 21 21 20 18 16 15 16 16 15 15 14 11 7 5 6 6 8 5 5 6 5 4 3 2 2 3 2 4 6 8 10 16
24 23 23 22 20 21 18 18 17 20 19 22 21 21 20 17 16 18 19 17 17 13 12 11 8 6 7 10 4 7 8 6 6 6 4 5 5 5 7 7 7 9 12
28 26 24 24 22 21 18 18 19 19 19 20 23 23 22 18 18 20 19 18 18 17 16 12 9 6 4 7 6 8 7 9 7 7 7 7 8 7 8 8 9 9 9
30 29 28 25 22 21 21 19 19 18 24 25 26 25 25 22 22 21 21 22 21 19 17 14 12 9 6 8 11 8 7 9 8 9 9 8 9 8 10 10 11 10 11
30 29 28 26 25 24 24 22 24 23 23 27 30 25 28 26 25 25 24 24 22 20 19 17 14 8 11 7 10 9 11 9 7 9 9 8 9 11 11 11 12 13 13
27 29 29 28 27 27 26 26 27 28 24 25 26 28 28 28 28 28 26 25 23 22 22 20 12 9 11 14 7 8 8 8 8 10 14 11 12 12 12 12 13 14 15
27 28 30 30 26 23 23 29 29 31 30 32 27 28 31 30 30 30 27 25 25 25 23 18 13 13 9 9 9 9 9 9 11 12 13 14 14 14 13 13 14 15 14

GFSSE_850_spd_039.txt.gz
Wind_Speed
20 24 26 24 26 31 30 28 25 23 19 16 13 14 17 18 20 21 22 23 23 23 24 21 21 21 21 22 22 23 22 23 27 24 21 21 20 18 17 16 17 17 15
24 26 26 24 25 32 31 28 26 23 19 16 14 18 20 21 22 23 25 25 24 24 25 22 22 21 21 22 22 23 24 25 29 26 24 21 20 19 18 16 16 15 15
25 27 28 26 27 32 32 29 26 22 20 17 19 20 22 23 24 25 25 25 24 23 23 22 21 21 21 22 22 23 23 28 26 23 17 18 19 18 18 17 17 17 15
28 28 28 27 28 32 31 30 27 24 21 22 23 22 24 25 26 26 25 24 24 23 21 20 21 20 20 20 20 22 24 26 23 18 14 16 17 17 17 16 16 16 16
29 27 28 29 28 31 31 29 27 24 23 25 25 24 26 28 28 26 24 24 24 22 20 20 20 20 19 18 18 20 24 22 20 14 15 16 15 15 14 13 15 12 12
30 34 32 32 31 32 31 30 25 23 26 27 27 28 29 29 27 26 25 24 23 21 20 20 19 18 17 17 17 19 23 19 17 13 14 15 15 15 14 13 13 13 12
29 34 33 34 33 33 31 27 25 27 29 29 30 30 30 28 26 25 24 24 23 21 20 19 17 16 15 16 16 17 18 20 14 12 12 13 14 13 13 13 11 10 9
26 33 33 34 34 32 29 27 27 29 29 30 31 31 30 28 26 24 23 22 21 20 18 16 15 13 13 14 15 16 16 17 11 12 10 11 15 13 13 13 11 11 10
21 25 37 28 30 30 29 28 28 30 32 32 32 31 29 27 25 23 22 20 19 17 15 14 11 11 10 12 13 15 17 17 11 10 8 8 12 11 12 13 12 11 10
18 27 39 32 29 29 28 29 30 30 31 32 30 28 28 26 23 22 20 18 16 14 12 10 9 8 9 10 12 14 17 15 9 8 5 9 11 9 11 11 11 10 10
16 28 36 37 36 34 34 25 26 28 30 29 29 26 25 23 18 17 17 16 14 12 10 9 8 8 7 8 11 15 14 7 7 6 2 12 9 9 11 11 10 9 9
22 30 34 36 37 38 37 35 30 27 28 30 29 24 18 16 13 15 16 14 12 10 9 8 7 9 11 8 10 11 6 7 6 6 7 10 6 7 10 12 10 7 8
25 30 38 38 36 39 38 35 33 31 27 31 27 22 24 21 16 14 14 13 12 9 9 8 8 5 5 4 4 4 5 6 4 4 10 9 3 4 9 10 10 8 8
23 25 34 40 46 44 42 35 34 30 32 31 30 24 18 18 13 12 8 10 12 9 9 7 5 2 1 4 6 6 7 4 4 3 11 8 3 5 6 8 8 8 8
28 30 34 39 44 43 40 31 31 35 27 27 22 17 12 15 12 11 12 10 10 10 9 7 3 4 2 3 4 5 5 6 4 2 7 11 5 8 7 8 9 7 5
29 27 31 32 33 34 38 37 29 20 22 25 22 17 18 12 14 13 13 12 9 9 7 6 5 4 3 1 5 4 4 3 3 2 0 10 9 4 7 8 9 7 6
27 26 32 29 29 33 35 33 27 25 21 27 18 22 17 14 18 12 11 11 11 10 11 12 9 6 2 0 2 4 2 4 3 3 1 1 10 8 6 11 11 9 7
26 21 29 29 32 24 29 23 19 18 25 21 17 19 19 17 16 15 12 11 12 10 9 8 8 5 4 3 2 1 2 4 6 3 1 2 2 6 9 10 14 17 18
21 23 28 27 29 30 20 19 14 16 18 17 18 18 19 16 15 14 11 12 14 10 10 10 8 7 5 3 3 2 4 4 6 3 3 2 3 3 5 10 11 16 18
24 30 29 26 28 24 22 18 15 17 18 19 20 19 18 16 17 15 12 15 13 11 10 10 9 7 6 5 4 7 6 6 5 5 4 4 5 5 4 7 8 11 12
25 31 29 22 18 19 19 19 17 16 17 24 19 19 17 14 16 17 14 16 14 12 12 14 11 8 6 7 7 9 10 11 10 7 8 7 8 7 7 9 9 8 14
26 27 27 25 22 22 18 17 17 17 18 17 16 16 16 17 17 17 16 15 15 14 17 14 12 8 6 9 6 9 10 8 10 10 10 10 10 10 10 11 10 11 10
29 29 27 25 24 23 18 17 17 17 19 20 20 18 18 20 19 18 18 17 16 18 16 16 15 12 7 9 9 6 7 9 9 11 13 11 11 11 10 11 13 12 11
31 29 27 25 24 24 21 22 21 21 19 20 20 20 19 25 23 22 23 19 21 17 16 17 16 13 13 7 8 9 10 10 8 10 10 13 13 11 12 11 12 13 13
30 32 31 28 26 24 24 25 22 23 20 19 19 20 19 28 27 27 24 22 23 21 22 19 17 17 16 13 9 10 11 10 11 11 15 12 11 11 11 12 13 12 14
29 31 33 30 29 27 26 26 24 20 24 21 18 22 23 24 25 28 27 27 29 27 24 23 23 20 15 14 10 11 14 13 12 14 17 16 16 16 16 15 13 13 14

GFSSE_850_spd_042.txt.gz
Wind_Speed
19 31 27 30 32 31 29 28 25 22 19 16 13 15 18 20 21 22 24 25 25 22 24 24 24 25 24 25 25 26 29 31 28 22 23 22 20 17 15 17 19 20 19
16 29 31 31 30 30 29 28 25 23 19 16 15 18 21 22 24 25 26 26 25 23 24 25 25 25 25 26 28 31 33 30 29 28 21 21 21 19 19 19 17 16 15
7 18 24 27 32 31 28 27 25 22 20 16 18 21 23 25 26 26 26 26 26 24 24 24 25 24 25 25 27 30 27 25 25 27 18 21 21 19 18 18 17 17 14
20 22 25 25 28 31 28 26 25 22 20 18 22 24 26 27 27 26 26 25 25 25 24 23 23 24 24 26 28 29 28 29 24 22 13 14 19 18 18 16 16 16 15
17 23 23 24 25 29 28 26 23 21 20 22 24 26 28 28 27 26 25 25 24 24 24 22 22 22 23 24 25 24 22 21 16 9 13 14 17 16 13 14 16 16 15
24 24 24 26 26 26 26 25 24 21 21 24 26 28 30 29 27 27 26 24 23 23 23 21 20 20 21 23 23 21 19 21 18 8 16 17 17 15 15 14 14 13 13
20 12 23 23 25 24 26 25 24 23 25 27 28 30 30 29 28 27 26 24 23 22 21 19 19 19 19 20 20 21 22 24 9 7 11 17 16 16 15 15 14 13 12
22 19 28 28 26 32 31 27 24 25 26 27 30 31 30 28 27 26 24 23 22 21 19 18 17 17 17 18 19 20 19 18 12 10 9 16 14 14 15 14 13 13 11
23 23 30 24 31 31 28 26 26 27 27 30 31 30 29 27 26 25 23 22 20 19 17 15 15 14 15 17 20 20 19 16 12 9 6 16 12 12 14 14 13 12 11
17 32 29 19 21 24 26 26 26 28 28 29 29 28 27 26 24 23 22 20 18 16 14 13 13 12 12 16 18 17 15 15 11 1 5 14 12 11 12 13 12 11 12
14 16 19 31 27 25 25 28 28 27 27 29 28 26 25 24 23 21 20 18 15 14 12 11 11 11 15 15 16 13 11 12 7 7 9 13 9 8 9 11 11 10 10
27 24 34 34 30 32 32 31 31 31 30 28 28 26 23 21 18 18 17 15 13 11 11 10 14 13 10 12 8 6 10 12 3 7 8 11 6 6 7 9 10 8 10
32 31 33 32 33 36 35 34 35 32 33 30 27 24 20 18 14 16 13 11 11 9 9 12 10 9 6 7 1 2 6 7 3 6 9 10 5 4 7 8 6 6 9
25 36 37 36 38 35 36 34 32 32 33 33 29 23 19 16 13 10 8 11 12 9 8 8 7 6 6 2 4 7 5 0 7 5 8 8 6 4 5 5 5 6 6
21 28 36 38 36 40 40 35 36 39 32 31 27 20 13 12 10 11 9 8 9 8 8 11 6 5 3 2 6 4 4 5 5 5 8 9 7 6 6 7 7 7 4
21 25 27 34 40 42 40 40 35 36 33 29 22 19 13 11 10 11 12 8 11 13 8 6 5 5 5 3 3 2 3 2 2 7 4 9 9 5 9 9 9 8 6
19 21 29 36 33 38 36 36 37 30 32 31 26 14 14 14 13 12 15 15 13 11 11 12 11 11 7 4 2 2 4 4 5 4 3 5 8 5 4 10 10 10 9
19 20 28 27 35 35 34 33 37 32 30 27 23 16 20 20 14 16 13 15 15 16 17 15 11 7 8 6 7 4 5 6 9 4 4 6 1 3 7 8 12 15 17
20 27 29 30 27 33 34 22 30 23 26 28 22 18 22 21 15 17 17 14 18 17 12 11 13 9 9 8 8 8 9 8 10 4 10 8 10 1 3 8 10 12 16
17 26 26 30 30 38 31 22 19 21 24 26 19 20 25 20 18 19 16 19 21 15 16 16 14 15 12 9 9 10 16 13 10 9 9 7 9 10 9 8 9 9 10
20 26 32 29 25 24 21 25 23 24 23 32 24 22 19 18 21 21 20 23 20 17 17 15 19 18 15 15 11 6 17 18 16 12 10 10 8 13 9 14 13 11 12
31 32 32 30 30 33 25 24 23 26 24 25 29 24 23 19 21 21 20 23 19 19 20 22 20 16 12 14 10 8 5 11 16 12 12 13 13 14 14 14 13 13 15
28 33 32 28 24 24 23 19 23 20 17 22 17 21 22 21 22 23 20 24 22 19 23 25 21 18 13 16 14 8 3 4 10 13 16 16 15 17 17 12 15 17 18
35 31 30 30 29 29 26 28 28 26 27 26 22 20 19 20 24 24 22 24 24 22 25 26 21 20 20 16 12 13 10 13 6 6 12 15 17 19 18 15 15 15 13
38 37 33 31 32 31 29 30 28 26 25 25 27 27 24 24 27 27 27 29 27 26 25 24 23 20 23 20 14 11 10 14 13 13 17 13 15 18 15 14 15 16 14
37 40 40 36 35 36 27 26 24 27 25 23 21 23 27 29 30 27 28 32 29 29 27 30 26 26 23 20 19 15 12 15 11 11 16 17 17 17 13 12 15 17 18

GFSSE_850_spd_045.txt.gz
Wind_Speed
22 23 30 30 30 33 32 30 27 23 20 19 21 24 26 27 27 26 27 29 28 27 27 27 27 28 30 32 33 33 32 30 24 21 21 20 20 20 20 20 21 22 21
20 23 25 30 29 30 31 29 27 24 21 20 22 24 26 28 29 29 29 29 28 28 29 29 30 32 34 34 33 32 30 28 26 20 21 21 21 21 21 19 17 17 17
14 8 24 30 30 28 28 28 26 23 21 22 24 25 27 30 30 30 29 29 29 29 29 30 30 30 32 31 27 23 19 19 18 18 19 23 22 20 20 19 18 17 16
26 27 28 24 29 29 28 27 24 22 21 24 26 27 29 31 31 30 29 29 28 29 28 28 28 30 31 31 31 30 23 18 14 14 19 19 20 21 20 19 19 18 21
11 24 32 34 30 29 28 27 24 23 23 26 29 30 31 31 31 30 29 29 28 27 27 27 28 30 31 28 25 20 17 14 15 17 19 19 19 18 17 16 16 17 17
9 17 23 30 36 33 30 28 25 23 26 28 30 31 31 30 30 29 28 28 27 26 25 26 26 26 27 24 24 15 14 13 13 15 19 18 19 17 16 15 16 17 16
18 14 16 24 32 31 30 27 24 25 27 29 31 32 31 30 29 28 28 27 26 25 24 24 24 24 23 24 27 21 13 12 10 14 19 16 16 15 15 15 15 14 13
26 10 24 20 39 32 32 28 23 26 28 30 32 31 30 30 29 27 26 26 24 23 22 21 22 22 22 20 23 25 17 8 7 10 14 16 13 14 13 13 13 13 12
15 15 19 22 24 19 19 26 26 27 29 31 32 31 30 29 28 26 25 24 22 21 20 20 19 19 20 21 22 21 13 5 5 8 11 15 12 13 13 14 13 13 13
21 19 24 18 21 28 29 30 26 27 28 31 31 30 30 28 27 26 25 22 20 18 17 17 17 18 21 21 20 18 14 9 7 8 10 12 10 11 12 13 12 13 13
21 22 25 7 21 25 26 25 24 25 27 28 29 28 28 28 27 26 24 21 18 16 16 15 18 18 18 15 14 15 9 7 3 6 9 11 9 7 8 9 9 10 11
31 29 13 21 31 26 19 26 29 29 29 29 27 26 26 27 26 25 22 19 16 14 14 16 15 12 13 10 8 11 8 3 1 4 7 8 6 5 6 8 8 9 10
22 20 21 26 28 30 31 32 30 31 29 30 28 27 26 23 22 21 20 16 12 10 12 13 10 11 8 7 2 6 5 1 2 4 7 7 6 4 3 5 6 6 6
26 31 25 32 33 32 37 36 34 32 35 33 31 27 24 20 21 19 15 13 12 13 12 10 8 7 5 4 3 6 6 3 2 3 6 9 7 4 4 6 3 1 2
30 28 29 33 35 34 35 35 34 35 34 28 29 26 22 19 17 13 12 11 11 12 11 7 4 5 7 3 4 4 7 5 3 3 4 6 6 4 6 4 4 2 2
26 33 35 37 35 39 42 44 43 41 37 29 28 24 19 15 12 10 9 8 11 10 9 7 8 7 7 3 3 2 1 2 1 6 8 7 7 6 6 8 7 7 6
24 27 36 44 48 46 45 44 46 49 38 33 27 29 20 13 10 11 11 10 11 11 12 11 6 8 6 5 2 4 2 5 8 6 9 8 6 6 3 7 10 12 11
17 21 25 31 38 40 44 44 49 49 46 36 35 27 29 15 12 11 11 16 16 15 15 14 13 11 11 9 7 5 6 10 10 8 10 9 9 9 6 5 9 14 14
16 19 26 32 38 41 37 38 38 46 43 40 30 36 19 13 17 16 17 19 18 19 19 18 17 14 13 12 10 9 8 12 10 8 7 10 11 12 11 9 8 11 13
21 25 27 32 37 39 38 37 35 28 35 37 39 27 15 18 22 23 19 19 21 20 21 20 16 17 16 14 13 10 11 14 14 11 11 8 13 13 13 13 12 13 13
23 26 29 31 31 34 35 31 35 31 36 38 32 21 21 25 23 27 22 22 21 21 22 20 20 22 21 19 15 14 13 17 20 17 13 13 13 14 14 15 15 16 16
26 28 28 33 38 37 35 33 29 27 26 26 29 27 27 25 23 25 22 24 23 25 24 22 23 24 22 22 18 16 10 12 19 19 17 18 16 15 16 15 16 20 19
30 36 38 40 39 36 29 26 24 24 27 29 35 33 28 26 23 28 25 26 26 23 24 25 24 23 22 22 20 15 7 6 7 9 16 21 19 18 19 19 19 20 20
34 36 37 34 35 33 30 29 32 33 34 31 31 35 30 30 27 28 25 25 28 21 22 26 26 25 22 23 22 23 17 15 9 3 7 17 20 23 23 20 21 20 22
34 38 37 36 34 30 28 31 33 33 31 32 27 27 25 24 24 25 26 25 27 26 25 26 27 30 24 29 20 20 15 17 14 15 14 13 13 21 24 23 22 21 23
36 38 38 38 38 35 35 35 36 33 32 32 29 28 26 25 25 28 26 27 28 29 28 27 29 29 25 28 26 24 19 22 21 19 18 18 20 17 13 19 23 25 24

GFSSE_850_spd_048.txt.gz
Wind_Speed
25 29 30 34 32 29 30 31 21 24 25 25 27 27 26 25 25 26 27 28 28 27 28 29 29 28 29 30 30 30 27 23 22 21 21 21 21 21 21 22 23 23 22
29 32 35 32 29 26 28 31 25 24 26 29 30 30 30 29 29 30 30 29 29 29 30 31 32 31 30 29 28 28 28 25 21 21 21 23 21 20 19 18 18 22 22
30 28 31 29 24 29 30 28 25 24 29 32 32 33 32 32 33 32 31 31 31 32 33 32 31 29 26 22 20 24 27 24 20 19 20 22 23 21 20 18 17 18 21
30 27 20 35 27 26 30 27 25 27 32 33 34 34 35 35 35 33 33 32 33 32 31 30 29 28 26 22 21 22 23 22 19 18 19 20 24 21 20 21 21 20 21
30 27 28 34 37 30 34 32 27 28 30 33 35 36 35 35 35 34 33 33 31 31 30 30 29 27 21 19 18 19 21 19 19 17 18 19 19 19 18 19 19 19 18
24 19 30 29 43 45 38 33 29 29 32 35 37 36 36 35 35 34 33 31 30 30 30 31 28 23 15 15 16 17 16 16 18 21 18 17 18 18 18 18 17 16 16
13 14 10 28 38 39 40 36 32 32 32 36 38 37 36 35 34 33 32 30 29 29 29 29 28 22 18 19 18 15 12 14 15 19 19 15 16 16 16 16 15 15 15
13 16 14 21 36 39 35 33 31 33 34 36 36 37 36 35 33 32 30 28 27 27 26 26 26 23 23 21 17 12 11 11 13 15 17 14 13 14 13 13 14 14 15
17 8 20 25 21 25 37 28 32 33 34 36 36 36 35 34 32 31 28 27 25 24 24 23 23 22 23 19 14 10 9 9 10 14 15 13 12 13 12 13 13 13 13
14 11 19 20 29 31 26 33 27 28 31 33 33 33 34 33 32 30 27 25 23 22 21 20 21 22 20 13 11 9 10 8 9 11 14 14 12 13 13 12 13 13 12
17 18 19 19 21 24 22 26 31 26 30 32 33 33 33 32 31 29 26 23 21 21 19 20 20 21 19 12 7 6 6 6 7 10 11 11 10 9 9 10 9 10 11
21 22 25 20 27 21 30 36 34 30 32 32 33 33 32 32 31 28 26 23 20 18 18 18 17 16 15 11 7 5 3 5 7 9 10 10 7 5 8 9 10 9 9
20 25 20 16 23 26 32 29 33 35 35 34 32 33 31 31 30 28 26 22 19 16 16 14 10 11 10 7 4 6 2 3 4 5 6 7 5 6 8 6 7 7 6
23 24 18 14 26 36 28 34 37 38 37 36 34 33 32 31 28 26 23 19 15 14 14 11 9 8 6 4 4 5 4 1 2 3 4 6 7 3 6 6 3 2 2
22 26 24 24 35 34 38 42 41 39 37 35 33 32 30 29 27 23 19 17 14 13 12 11 9 5 4 3 5 5 4 2 2 4 3 4 6 5 2 3 3 4 4
26 27 30 30 35 39 44 44 38 39 36 34 34 31 27 28 23 18 17 13 13 15 13 9 5 5 9 6 3 7 4 1 4 4 5 6 5 3 5 6 7 7 8
20 35 32 32 39 41 42 41 39 40 39 38 33 28 26 23 20 17 13 11 14 14 10 8 7 10 11 7 4 5 3 2 6 7 7 7 9 8 6 7 10 11 11
21 23 30 38 35 42 44 44 45 43 41 40 35 29 26 22 18 14 11 13 13 12 10 12 13 11 10 9 9 7 6 5 6 8 7 7 8 9 9 7 9 13 14
17 20 26 39 42 42 47 47 46 43 45 40 37 34 28 20 17 13 11 14 15 16 15 16 17 15 13 14 12 11 10 6 7 10 10 8 8 9 12 12 11 12 14
16 17 21 26 37 43 44 43 44 41 44 43 38 38 35 26 18 16 15 16 18 19 20 19 19 18 20 15 14 14 13 11 11 12 13 12 12 12 11 11 12 13 14
15 17 26 32 40 41 41 42 44 44 44 42 40 37 33 25 21 19 21 18 20 22 23 23 22 23 21 20 20 18 17 16 16 15 15 16 16 16 15 13 13 14 15
19 21 29 34 36 38 41 44 45 48 44 39 44 43 39 29 26 22 24 25 24 25 27 27 26 24 23 24 24 21 19 21 20 18 18 20 19 19 19 18 17 18 17
24 28 30 32 33 37 37 36 40 36 35 42 46 45 38 36 28 25 27 26 25 25 29 30 26 27 26 26 28 23 9 13 14 19 19 20 23 22 23 21 21 20 21
26 27 29 33 34 35 38 37 41 39 39 42 45 44 38 31 26 25 27 26 27 29 32 29 28 28 26 27 27 28 27 19 11 9 18 20 24 25 25 23 25 24 24
29 32 33 35 39 38 38 38 37 37 34 34 37 41 36 31 31 30 32 28 30 32 30 29 28 30 29 29 30 30 25 22 22 22 19 20 20 22 23 25 26 28 28
34 37 37 40 42 41 39 37 39 40 38 37 37 36 35 34 34 32 31 31 31 30 28 27 25 28 30 31 31 26 29 29 26 28 28 29 24 21 21 20 22 27 28

GFSSE_850_spd_051.txt.gz
Wind_Speed
29 31 33 33 37 32 30 27 28 14 18 24 29 31 30 27 25 26 28 28 27 27 27 27 26 25 25 26 25 23 21 20 21 21 23 25 23 23 24 24 23 23 22
28 33 34 34 32 30 33 31 21 22 19 24 27 29 28 28 28 29 31 31 30 30 29 28 27 26 27 28 26 23 20 19 20 22 22 23 23 21 22 23 22 20 20
27 33 33 32 35 35 30 29 31 21 20 25 28 28 30 31 32 32 32 31 31 30 29 28 27 26 28 27 27 24 21 19 19 22 24 26 25 23 22 20 20 22 21
28 35 35 36 35 34 31 24 23 26 26 27 29 32 34 34 34 33 33 33 33 32 30 27 24 25 27 27 26 26 22 19 18 19 21 24 25 23 23 24 22 22 23
30 34 35 34 33 31 29 30 24 24 29 29 32 34 35 35 35 34 35 34 33 32 29 27 25 27 25 25 24 23 23 20 18 17 18 20 24 22 21 19 21 20 19
30 31 33 31 36 35 35 33 30 31 33 32 33 36 37 36 35 36 35 34 32 33 30 25 22 21 22 22 21 21 22 22 21 19 18 19 20 21 18 17 16 17 18
29 28 24 29 28 26 32 30 29 30 34 33 35 38 39 39 37 35 34 33 33 32 29 22 19 19 18 19 18 18 18 19 20 20 18 18 18 17 17 17 17 18 19
24 30 32 37 25 22 42 37 37 36 36 36 35 38 39 38 37 34 33 33 32 30 27 21 21 21 20 16 15 15 15 16 18 18 16 15 15 15 16 16 16 16 16
19 21 26 39 28 24 35 43 36 39 37 36 36 38 38 38 35 34 33 32 31 29 25 21 21 21 18 15 12 12 13 14 15 16 15 14 13 15 15 15 14 14 14
17 14 13 25 32 27 48 37 32 32 37 35 36 38 37 37 34 33 33 31 29 29 26 21 21 19 15 14 12 12 12 12 13 15 15 15 14 14 14 13 13 13 13
16 14 20 14 17 22 30 38 31 33 37 36 37 38 38 37 34 32 31 30 28 26 25 23 18 17 12 10 9 9 9 10 12 14 14 14 11 11 10 10 11 12 12
12 19 18 12 25 21 29 33 33 31 29 33 37 36 37 36 33 31 29 28 26 24 24 23 18 15 12 9 8 8 7 9 10 12 12 11 8 6 9 9 10 9 12
16 24 25 32 30 30 34 48 43 37 33 30 34 35 37 36 33 30 29 25 23 21 21 22 19 15 13 10 8 7 7 7 8 9 10 9 7 4 8 8 8 6 8
20 22 22 24 26 32 33 35 45 46 44 36 37 36 37 36 33 29 27 23 20 21 19 17 15 13 9 8 6 7 7 6 6 6 7 5 4 5 7 5 6 3 3
17 23 23 30 28 34 44 49 48 44 41 44 38 36 36 36 33 28 24 21 19 19 15 14 13 9 7 6 6 7 6 5 5 5 4 2 4 3 3 5 3 4 4
20 23 21 28 30 37 41 39 44 44 44 41 39 37 36 33 31 28 23 19 18 16 13 11 10 8 8 5 5 7 7 4 3 4 4 2 3 2 2 3 4 5 8
16 18 23 23 34 37 37 39 42 43 41 40 39 37 34 32 29 25 19 19 16 15 12 12 10 8 9 7 5 6 5 3 2 3 3 3 3 4 4 5 7 8 10
14 21 29 29 36 39 39 43 40 42 41 39 37 34 33 29 23 20 20 17 16 16 12 9 7 7 9 9 6 6 6 5 3 4 4 3 4 5 5 7 8 11 12
15 16 24 38 35 36 42 37 39 40 40 39 36 34 33 27 23 20 18 17 16 13 11 9 10 10 9 9 9 9 9 8 8 7 6 5 6 7 7 8 10 11 13
13 14 16 25 37 39 45 44 40 40 38 39 35 35 31 27 24 20 15 14 13 13 14 13 14 14 14 12 12 13 13 12 14 11 9 10 10 11 10 10 11 11 13
15 15 14 24 44 43 42 44 44 41 41 41 39 36 31 23 22 19 16 15 14 15 17 17 18 19 19 17 17 18 17 18 18 17 15 15 16 14 14 13 13 13 13
15 19 20 21 35 40 42 42 47 43 43 39 39 40 36 27 21 20 19 17 17 16 19 22 22 23 21 22 23 22 19 21 23 22 22 20 18 18 19 19 17 15 17
15 15 22 27 31 35 39 41 42 39 41 40 41 43 42 39 26 21 22 20 20 22 23 25 27 28 27 25 26 22 10 15 15 19 23 23 20 21 23 23 22 21 21
17 19 22 25 31 33 36 36 39 43 45 47 41 41 45 43 38 34 27 24 25 26 28 29 29 31 31 28 26 28 30 27 15 8 14 17 23 23 23 25 25 25 25
19 20 22 23 27 30 33 36 40 43 46 45 43 46 42 47 44 35 30 29 23 26 29 29 30 32 33 29 30 30 32 33 31 28 26 29 24 24 22 24 25 28 27
22 23 24 27 28 31 34 36 38 39 45 47 46 49 49 45 45 41 37 32 28 31 32 30 30 35 33 31 32 31 35 33 31 30 31 30 27 28 25 23 26 27 29

GFSSE_850_spd_054.txt.gz
Wind_Speed
32 35 26 28 31 31 26 26 23 22 27 30 29 27 26 24 24 24 24 25 24 23 22 22 24 26 27 25 24 24 23 25 26 25 26 26 25 25 24 25 25 26 24
32 35 33 34 31 29 31 30 25 21 25 30 29 28 26 24 25 26 26 25 25 25 25 26 27 28 28 27 25 24 23 22 22 24 24 25 25 24 24 23 22 24 23
31 34 35 32 34 35 28 23 26 27 26 28 28 26 25 26 28 28 28 29 28 27 29 29 30 30 29 28 26 23 22 21 22 22 24 25 23 21 21 19 22 23 21
30 31 34 34 37 29 30 32 31 30 27 25 25 26 27 29 31 30 31 30 29 28 28 28 30 29 31 29 28 25 23 21 19 21 28 26 25 24 24 26 25 26 24
29 31 34 33 30 31 32 30 29 28 24 29 27 28 29 32 32 32 32 31 30 29 28 29 29 29 29 28 28 27 23 21 20 21 26 27 26 23 24 20 23 22 24
28 34 34 32 32 32 31 31 28 25 26 32 28 30 32 33 33 32 33 32 30 28 30 30 29 28 28 28 28 28 25 22 21 21 22 24 24 22 21 21 22 21 21
27 32 32 34 36 34 33 31 29 26 28 29 29 32 33 34 35 34 33 31 29 28 28 27 27 26 25 25 24 24 23 21 20 21 21 21 21 21 21 20 20 21 21
27 24 33 34 33 31 31 32 32 30 30 30 32 34 35 35 35 33 32 31 28 26 26 25 26 25 23 22 21 21 21 19 19 20 19 19 19 19 19 20 20 20 20
19 23 28 32 27 25 25 28 31 30 32 30 33 36 36 35 33 31 31 31 27 25 24 25 25 23 20 18 18 18 19 19 18 19 17 17 17 19 19 19 19 18 18
17 20 26 28 34 26 27 30 38 39 32 35 37 38 37 33 31 32 32 31 28 24 24 24 23 21 19 17 16 16 17 17 18 17 17 18 20 19 18 17 16 16 16
15 18 15 27 34 24 13 32 45 36 33 37 40 39 37 34 33 33 32 30 26 23 22 22 22 20 18 16 13 14 15 16 16 16 16 15 17 17 15 14 13 14 14
14 15 24 8 17 23 24 35 42 36 35 36 39 39 38 35 33 32 30 28 26 23 21 19 17 15 13 13 13 12 13 15 15 15 14 13 12 12 12 11 12 12 12
17 27 21 10 24 20 37 32 43 38 35 32 37 38 38 37 35 32 31 28 25 22 21 20 17 13 12 12 12 11 11 12 13 13 13 11 9 9 8 9 8 10 11
20 22 19 17 28 33 35 41 48 43 39 36 35 37 38 37 35 33 30 27 26 22 19 18 19 15 12 12 10 10 9 10 11 10 10 9 8 7 7 6 4 5 7
23 22 17 28 31 30 31 44 50 45 41 40 41 39 39 37 34 32 30 26 24 23 20 18 17 14 11 10 10 9 8 8 8 8 8 6 6 6 4 2 3 2 5
18 20 30 25 28 27 33 44 49 52 47 41 41 37 39 37 34 31 28 25 23 20 18 16 14 11 10 9 8 10 8 6 5 6 6 4 4 4 4 3 2 1 4
19 20 23 28 24 31 41 45 51 51 48 46 43 37 37 37 33 30 26 23 21 19 17 15 12 10 9 9 8 8 7 5 3 4 4 2 2 2 2 5 4 4 8
15 24 25 30 28 34 38 46 50 47 44 48 44 39 39 36 32 27 23 21 19 17 14 13 9 9 9 8 6 7 7 5 3 1 1 1 1 0 1 3 4 5 8
13 19 22 30 33 37 39 45 47 47 45 42 39 42 39 36 31 24 21 20 19 17 15 12 11 9 8 9 8 7 8 8 8 6 4 4 3 3 3 5 5 7 8
15 15 17 27 36 42 43 41 39 40 39 40 40 40 40 36 29 22 20 20 19 19 17 14 11 10 9 8 9 8 11 12 13 13 10 10 8 7 7 7 8 9 9
13 14 13 19 31 41 41 36 37 42 40 40 39 40 38 33 26 25 22 21 20 17 13 13 11 12 12 13 14 14 16 17 18 17 16 15 14 12 11 11 10 11 11
13 13 12 14 22 33 35 40 44 47 42 42 36 38 36 38 30 27 22 20 19 16 13 15 15 16 16 18 19 18 18 21 24 22 22 22 19 18 16 14 13 14 15
12 14 17 16 25 32 40 42 43 40 40 45 35 39 38 40 34 27 26 22 17 15 14 14 17 20 20 21 24 21 9 14 13 16 19 21 21 21 18 16 19 20 20
11 14 23 22 25 36 38 41 45 42 49 49 40 36 37 39 36 33 26 20 19 16 17 18 20 22 24 28 28 29 29 29 18 10 12 12 14 17 17 18 21 23 23
13 13 18 25 26 31 38 39 41 41 41 49 47 42 41 43 39 38 29 22 21 20 20 22 24 25 28 33 34 35 31 32 31 31 24 25 25 22 21 22 20 22 25
16 17 19 27 31 33 35 37 40 43 42 45 50 45 41 40 42 42 44 37 29 27 25 23 25 28 31 33 35 36 34 33 32 32 33 27 28 26 28 26 25 22 21

GFSSE_850_spd_057.txt.gz
Wind_Speed
36 32 31 30 26 25 23 18 29 32 31 29 28 27 25 25 25 22 23 22 22 23 22 23 24 24 24 24 23 25 27 27 27 27 27 26 25 25 26 26 25 26 26
37 36 39 41 29 27 30 28 29 32 29 30 30 26 26 27 26 24 23 21 22 21 22 25 25 23 24 25 25 26 27 28 29 28 27 26 25 24 24 24 25 26 25
33 39 44 28 25 29 31 29 28 32 32 32 31 29 28 28 26 24 23 23 22 22 24 25 26 25 26 25 24 23 22 22 24 25 26 22 23 22 21 22 22 21 21
30 39 33 30 34 34 32 27 28 29 29 32 28 29 28 28 27 24 24 24 23 24 27 27 27 27 26 25 23 22 20 20 23 25 23 22 22 19 19 20 19 18 18
27 36 33 33 36 34 33 30 27 31 35 34 33 33 30 30 27 26 27 26 25 29 28 29 29 28 27 26 24 22 22 21 22 24 23 25 23 24 22 23 23 23 23
29 33 34 35 36 35 32 30 33 33 33 33 34 32 32 31 29 29 29 28 29 28 28 30 29 29 28 27 25 22 22 22 24 23 23 23 22 21 23 22 21 22 22
26 31 36 34 34 32 31 36 35 36 36 34 33 32 34 32 31 30 29 29 30 30 31 29 29 28 27 27 25 23 22 21 23 23 21 21 21 23 23 22 22 22 22
21 28 29 34 34 34 35 35 34 34 33 35 33 36 36 34 32 30 29 28 31 32 30 28 27 26 25 24 24 22 21 21 22 22 21 20 21 21 21 21 21 21 21
24 25 24 25 29 32 31 31 32 34 36 37 37 38 38 35 32 30 30 30 29 29 28 27 25 24 23 22 21 21 21 20 21 21 21 19 20 19 19 20 20 20 20
18 18 23 25 29 31 30 28 30 32 32 37 37 40 38 37 34 31 29 28 27 27 27 26 24 22 21 19 20 20 21 20 20 20 19 19 20 19 18 18 19 18 18
18 19 15 24 36 35 31 36 35 31 36 38 40 39 38 36 34 32 30 27 26 27 27 24 21 21 20 18 18 19 19 20 19 18 17 18 18 18 17 16 16 16 16
17 18 16 3 13 21 30 26 29 39 36 36 39 41 38 37 36 33 29 27 25 26 25 24 22 19 17 18 17 17 18 18 17 16 15 16 16 15 14 14 13 14 15
13 14 21 13 16 25 29 33 41 42 38 36 41 39 38 36 36 33 30 27 26 25 26 23 20 17 15 15 17 16 16 16 16 16 14 13 14 13 13 10 11 12 12
14 14 22 10 16 20 23 30 50 48 43 37 38 39 38 38 36 35 32 28 26 25 22 22 21 17 16 14 14 15 14 14 14 14 12 11 12 12 10 7 6 9 10
24 16 18 14 21 21 24 39 42 44 40 36 37 38 38 37 36 33 31 28 27 25 23 22 18 18 16 15 14 12 12 11 11 11 10 9 8 9 6 4 3 3 6
21 18 15 13 22 24 29 37 37 35 40 41 36 38 35 34 35 33 31 29 27 24 23 21 17 14 14 15 14 13 11 10 9 9 8 7 6 8 7 3 1 2 3
18 17 15 17 23 28 32 37 39 39 39 42 35 38 36 32 32 32 30 29 26 23 21 22 19 15 14 15 13 13 11 8 7 6 5 6 4 4 6 6 4 4 6
18 19 16 26 24 27 29 41 44 44 44 42 34 37 36 38 35 31 30 29 26 22 22 21 18 17 15 13 13 12 10 8 6 5 5 4 4 3 3 5 7 6 10
18 24 20 22 22 29 29 42 44 43 44 40 40 40 40 37 34 33 30 28 26 22 21 19 16 16 17 15 13 10 10 10 9 7 5 4 5 5 5 4 6 8 9
18 19 24 26 24 26 27 41 45 45 43 41 42 44 38 36 36 33 29 27 24 22 22 18 16 16 14 12 11 10 11 13 13 11 10 9 8 7 7 6 7 9 9
19 21 23 26 25 34 33 41 45 49 45 42 43 44 39 36 37 33 29 26 24 23 21 18 18 17 15 14 12 13 13 15 17 16 15 14 14 12 11 10 9 10 12
17 18 19 21 22 31 35 40 45 48 47 40 45 44 37 40 40 35 30 27 24 24 24 24 21 18 17 16 17 15 11 16 22 21 19 19 18 17 17 15 14 12 13
20 19 19 24 24 29 38 40 41 39 44 42 42 41 42 42 40 35 32 26 23 26 25 19 20 20 18 17 19 17 7 10 10 14 16 18 17 18 21 19 18 15 15
19 16 22 23 22 30 36 42 41 47 53 50 43 42 38 38 38 34 33 30 29 28 25 18 15 18 19 20 22 25 25 24 14 9 13 15 13 13 15 19 18 17 18
21 18 20 26 25 30 33 38 43 45 49 36 42 45 39 39 40 41 38 37 31 28 26 17 19 20 20 23 23 27 29 30 33 29 20 21 21 18 18 18 20 21 20
21 21 22 28 26 30 34 38 41 43 50 39 42 50 45 43 43 44 41 35 39 33 27 22 20 19 19 23 24 28 32 30 30 31 31 28 26 22 21 21 21 23 21

GFSSE_850_spd_060.txt.gz
Wind_Speed
16 22 31 28 26 27 26 27 28 30 29 27 25 26 27 25 23 23 23 22 22 23 23 23 23 23 23 22 22 23 24 23 23 23 24 23 24 25 25 24 24 24 24
15 20 29 30 31 27 24 16 28 31 30 28 28 27 28 25 25 24 23 23 24 22 23 24 23 24 22 22 23 25 26 26 26 25 25 26 24 23 23 25 24 24 24
17 22 32 33 33 33 27 29 25 33 33 31 30 29 28 26 26 25 23 22 21 22 23 23 23 24 24 24 23 24 23 25 25 23 23 20 22 21 20 20 21 19 20
16 23 29 33 31 30 28 25 28 34 34 33 31 29 28 27 26 25 24 22 21 22 23 23 23 24 24 24 23 22 23 24 26 25 19 19 20 18 17 16 17 16 14
20 25 25 34 28 30 31 30 33 35 35 34 34 31 30 28 27 26 24 22 21 22 24 24 25 25 24 22 22 21 22 24 27 22 21 19 18 15 14 13 13 14 14
19 23 27 33 27 30 30 33 34 36 36 37 35 32 29 28 28 27 25 25 24 24 25 26 26 27 25 23 22 21 23 25 23 21 20 21 20 20 19 18 18 18 17
20 23 26 33 31 29 32 33 35 37 39 37 34 32 30 30 29 28 28 27 25 27 28 27 27 27 25 23 23 24 26 26 19 20 20 20 20 20 21 20 20 20 19
17 22 23 30 31 34 34 34 37 39 39 36 34 33 30 30 31 31 29 29 27 29 28 29 28 27 25 24 24 22 24 24 20 20 20 19 20 21 21 20 20 20 20
16 21 22 23 22 27 29 34 33 40 38 35 34 32 32 32 33 33 32 30 29 30 29 28 27 26 24 23 23 22 26 24 19 19 20 18 19 20 19 19 20 20 19
14 21 24 22 28 25 24 29 31 33 34 35 34 33 35 35 34 33 31 32 33 31 28 27 26 24 22 22 22 21 23 25 18 18 17 18 19 19 18 19 19 18 18
11 16 18 24 25 32 35 23 25 29 35 34 33 35 36 34 34 30 33 33 32 30 28 26 25 23 22 22 22 22 20 16 16 15 16 19 19 18 17 17 17 16 16
9 17 19 16 13 26 33 38 32 31 32 33 37 37 33 31 33 28 33 31 31 29 27 25 24 22 22 21 21 18 14 15 14 14 15 18 18 17 16 15 16 15 15
11 13 19 16 15 12 35 29 26 30 38 38 36 39 34 36 35 34 33 30 32 30 27 24 23 18 18 17 15 14 15 14 14 14 15 16 17 16 15 14 15 15 14
14 11 22 19 16 23 25 33 40 33 38 39 40 40 37 40 37 32 34 29 33 28 25 23 20 17 17 17 16 16 15 14 14 13 14 13 14 14 12 12 12 12 11
12 12 18 16 12 25 27 27 34 39 42 42 42 38 37 42 39 32 32 30 27 24 24 22 18 19 17 17 17 15 13 13 14 12 12 12 12 11 8 6 8 6 8
14 14 16 15 11 20 25 27 31 41 48 45 40 39 42 42 38 33 35 27 24 23 22 20 20 18 17 16 15 14 12 12 11 12 9 10 11 9 6 5 2 3 2
15 20 15 16 13 19 19 20 26 39 49 41 39 40 43 41 38 33 30 27 23 22 22 20 20 17 16 15 15 14 12 11 10 11 11 8 9 11 11 8 5 3 5
15 16 15 14 16 21 21 23 29 38 38 39 35 39 38 36 35 35 32 25 25 22 21 19 19 16 16 16 15 13 12 11 10 9 9 10 9 9 12 12 10 7 8
20 18 18 14 16 22 26 27 31 37 38 39 33 30 37 34 30 27 27 27 27 26 21 21 19 17 16 15 14 14 12 11 11 10 9 9 10 12 10 9 11 11 12
18 22 21 15 21 24 29 32 32 31 39 40 34 31 33 36 28 27 27 28 26 21 20 22 20 19 16 15 14 13 13 14 13 12 11 11 11 12 11 12 11 12 13
20 21 22 26 24 28 32 37 39 37 39 47 42 28 34 28 40 31 26 29 24 20 20 24 21 19 18 16 14 13 14 15 16 16 15 15 14 15 15 14 14 12 13
17 19 22 23 26 28 29 33 38 42 42 45 42 37 32 33 37 37 32 30 29 20 23 23 23 18 16 21 13 11 10 12 18 19 20 19 19 17 17 18 17 15 15
16 20 19 22 22 27 24 27 39 42 40 44 42 45 40 39 37 37 35 33 32 29 27 25 22 21 17 20 20 11 8 12 8 11 19 20 21 22 19 21 20 20 20
17 15 16 21 24 26 32 32 37 45 49 50 46 47 46 43 34 34 37 34 33 31 27 26 24 22 23 18 23 24 19 12 10 7 10 15 17 18 19 16 19 22 24
17 17 17 19 25 30 30 33 35 42 46 46 48 49 39 49 44 37 38 37 35 31 26 23 20 21 22 22 18 14 20 21 26 26 21 16 23 21 20 18 20 20 25
19 18 19 25 26 30 32 33 36 40 45 47 50 49 46 46 43 40 43 41 37 30 30 33 28 22 27 25 22 20 18 17 18 23 28 32 31 20 23 21 22 21 25

GFSSE_850_spd_066.txt.gz
Wind_Speed
3 3 6 16 22 23 23 22 22 23 22 21 19 20 21 20 20 20 20 19 20 21 20 19 20 20 21 21 18 16 17 20 23 25 25 25 25 24 23 23 24 25 24
6 9 9 16 23 23 22 22 21 22 22 21 19 21 20 20 21 20 19 21 22 23 24 22 20 21 22 22 20 20 22 23 24 25 26 25 24 22 21 22 23 22 21
4 10 11 18 23 22 23 23 23 23 23 22 20 21 21 21 21 20 21 23 25 25 26 23 20 21 22 24 23 23 22 21 22 23 22 22 23 20 19 20 20 19 18
5 9 14 21 23 22 23 24 25 25 25 25 23 23 22 22 21 22 23 24 24 25 24 21 20 21 21 22 23 23 24 24 19 16 20 21 20 18 18 17 16 16 15
4 10 13 16 24 23 25 26 26 27 28 27 25 24 24 23 23 21 22 23 23 23 23 21 21 22 22 23 27 32 30 28 24 13 12 21 21 18 16 16 15 14 14
4 6 15 18 23 25 26 26 27 29 30 31 30 28 26 26 25 24 21 20 21 21 22 22 23 25 24 24 30 31 28 22 23 18 14 19 22 21 14 12 11 11 12
6 10 14 19 20 26 26 24 25 28 34 34 31 30 30 29 27 24 22 20 18 21 22 23 26 25 25 29 32 30 27 23 16 14 17 16 21 16 13 14 14 14 14
9 12 17 19 19 20 24 22 25 38 33 35 34 31 30 29 27 24 22 20 20 20 22 26 25 24 25 29 31 29 25 21 17 13 16 19 19 17 17 16 17 17 18
14 13 16 20 24 24 28 30 28 22 28 37 36 32 29 27 26 24 23 21 21 21 23 26 26 26 28 32 32 29 23 20 14 14 18 20 19 19 19 18 18 19 18
12 12 12 22 23 23 23 30 23 25 25 30 40 34 31 27 26 25 22 21 22 23 25 27 26 27 31 31 32 25 23 15 11 15 17 20 20 19 20 19 19 18 18
8 11 12 17 21 17 20 19 20 22 38 26 38 35 32 30 27 24 23 24 25 26 26 26 26 28 28 29 30 27 21 14 18 12 16 20 20 19 19 19 18 17 17
9 9 11 12 13 13 13 16 12 12 21 35 39 38 35 33 29 28 26 28 28 27 26 25 26 27 28 31 28 23 23 18 13 9 18 19 19 18 17 17 18 16 16
9 9 12 13 12 13 14 9 17 19 18 23 36 38 36 34 32 30 30 30 29 27 27 25 26 27 33 29 24 19 20 13 11 9 18 19 17 17 17 16 16 16 15
9 11 11 11 12 13 10 9 13 17 21 37 35 37 34 36 34 31 33 33 32 29 28 26 27 25 30 21 13 16 21 13 11 10 18 19 19 16 16 16 15 15 14
9 9 10 13 13 11 9 3 6 18 16 39 38 32 35 37 35 32 35 34 32 31 28 27 23 18 19 14 15 20 15 15 11 10 18 18 17 16 16 16 15 14 12
10 8 13 13 14 8 7 6 7 19 23 37 36 29 34 33 31 31 37 35 33 29 29 26 20 19 17 15 18 19 14 13 9 8 15 17 16 16 16 15 13 13 12
12 12 13 18 14 8 10 11 15 15 19 30 41 38 34 35 28 33 37 36 31 27 28 22 21 20 19 16 17 18 16 15 11 8 7 15 15 13 10 8 7 5 6
13 16 15 13 12 9 12 18 15 17 17 32 35 40 36 34 29 29 33 33 29 23 22 20 24 21 20 18 17 18 16 18 14 11 8 8 12 14 14 12 10 8 6
15 16 17 16 13 11 10 13 16 18 24 30 41 38 42 41 31 30 29 27 29 27 25 23 22 22 22 20 18 16 16 16 20 15 13 8 9 10 11 12 13 12 11
16 15 15 16 13 15 12 10 12 15 20 34 40 45 39 39 35 30 25 33 31 24 27 21 22 22 22 20 16 17 18 16 16 16 18 17 13 12 12 11 12 14 14
19 20 18 18 17 18 15 16 12 17 37 39 38 43 48 39 39 35 26 30 29 27 27 24 23 22 18 21 20 20 18 16 15 20 22 21 23 22 21 17 17 17 16
21 19 21 23 20 18 16 16 17 23 34 38 39 41 46 41 45 37 33 33 34 28 27 28 24 23 18 22 20 21 18 18 24 23 20 22 22 23 22 25 22 21 19
22 21 20 23 23 17 19 21 22 25 33 37 36 37 39 44 42 40 33 26 27 28 26 27 27 24 26 25 26 20 16 14 21 24 28 25 25 24 20 19 22 24 22
23 23 18 18 25 22 24 27 25 34 39 43 43 39 39 39 42 40 38 33 31 31 30 26 24 28 25 27 29 28 23 15 9 10 21 23 28 23 25 26 24 22 22
23 25 19 19 22 24 27 30 28 35 35 41 44 44 42 40 41 40 41 39 36 35 29 31 30 31 30 26 27 30 27 24 20 12 12 20 20 29 29 25 27 26 27
25 27 25 24 18 28 28 31 33 34 36 44 51 49 45 44 45 47 37 41 36 36 36 32 31 31 32 33 28 27 25 25 26 27 20 21 25 27 27 28 28 29 31

GFSSE_850_spd_069.txt.gz
Wind_Speed
1 2 0 5 17 21 21 20 22 22 21 19 19 20 20 20 20 19 18 17 17 18 19 22 22 23 22 20 19 18 20 21 23 25 25 25 25 26 26 27 27 27 26
2 2 4 7 19 22 21 20 20 19 19 18 18 20 20 20 20 20 20 21 20 22 22 23 23 23 22 21 19 19 22 25 26 26 27 24 23 23 24 25 25 25 24
2 4 6 9 18 21 21 21 22 22 21 19 18 19 21 20 22 21 22 23 22 22 23 23 23 23 23 21 22 24 25 25 25 25 25 25 23 24 24 23 22 24 25
3 8 6 11 19 23 23 24 24 24 22 21 20 21 20 22 21 21 21 24 24 24 25 25 25 26 26 25 24 22 21 22 22 24 24 23 22 22 22 21 19 18 17
9 9 12 10 19 24 25 26 26 25 25 22 21 22 22 23 23 23 23 24 25 25 24 24 25 28 27 26 28 27 22 19 17 19 24 24 23 21 18 17 16 15 15
6 11 15 12 12 22 24 26 25 26 25 24 23 24 24 24 25 26 26 25 24 23 23 24 27 28 28 34 32 30 24 18 16 19 24 23 22 20 15 16 15 14 15
9 13 15 15 11 16 24 25 26 28 27 27 27 27 26 27 25 25 24 24 24 23 23 27 30 32 36 34 30 25 17 20 13 16 21 23 20 18 16 14 13 15 16
10 11 13 16 14 17 22 25 26 27 25 25 29 32 30 30 27 26 23 23 23 24 24 30 32 34 36 32 27 25 21 16 12 13 18 23 22 19 18 16 15 16 15
11 11 11 18 18 20 20 25 29 31 29 22 26 33 33 33 29 26 25 23 23 22 28 31 32 35 37 33 28 25 19 12 12 18 21 24 21 19 17 17 17 17 18
9 11 12 16 19 20 21 25 27 24 26 28 21 25 36 32 29 26 22 21 21 24 30 29 31 34 36 32 27 20 17 9 10 19 21 22 20 20 19 19 19 18 18
9 6 7 12 19 19 19 21 25 22 16 13 27 30 31 34 30 26 24 22 21 28 29 29 29 35 36 31 27 21 15 8 11 16 19 20 20 20 20 19 18 18 17
10 8 7 8 13 17 18 18 18 18 18 22 26 32 43 38 32 29 24 23 25 29 29 29 32 37 37 33 27 22 15 10 10 9 17 18 19 19 19 18 17 17 17
12 7 9 12 12 14 15 16 16 15 13 23 26 24 40 38 34 31 29 28 28 29 30 31 35 36 36 33 27 14 20 13 8 6 16 18 19 18 18 18 18 17 16
8 6 10 10 12 15 16 15 14 14 19 16 30 38 42 41 37 34 32 32 31 29 31 33 34 36 36 30 23 17 21 13 8 7 16 18 17 18 17 17 17 16 15
9 9 8 10 13 13 12 11 10 11 18 20 28 41 46 42 38 34 35 35 34 34 32 33 34 38 32 24 28 15 14 12 8 7 15 18 18 18 18 17 16 15 14
11 6 13 12 13 13 10 8 6 12 14 23 39 44 44 40 37 37 38 36 35 33 32 33 34 37 23 25 26 19 13 14 8 6 14 19 17 17 17 17 15 14 13
10 9 16 16 16 11 8 6 10 13 21 24 36 40 42 39 39 37 38 37 34 32 32 30 31 29 19 18 20 12 13 13 10 7 13 17 17 15 16 15 13 12 11
12 11 18 19 16 14 10 8 13 13 12 31 31 35 38 37 36 36 39 38 35 33 32 29 27 22 20 19 29 16 16 16 10 7 6 13 17 16 15 13 12 11 10
12 13 16 16 18 14 12 13 16 19 20 26 36 41 42 38 33 32 38 38 34 35 31 26 31 26 25 20 26 21 19 13 13 11 7 10 8 11 12 13 11 10 9
13 13 14 16 16 13 11 17 20 19 19 22 42 45 45 40 37 33 37 37 34 34 32 24 32 26 26 22 21 22 21 17 15 15 12 12 11 11 11 12 12 13 12
15 16 16 19 19 18 15 19 21 21 22 32 38 40 40 40 37 35 38 37 37 33 33 29 32 27 27 25 22 20 20 18 20 18 18 17 17 16 15 16 15 14 15
19 20 19 20 21 21 16 17 17 20 24 31 34 42 43 42 40 39 42 40 37 35 34 32 32 29 27 27 26 25 23 21 20 19 22 22 24 22 20 20 20 20 19
22 24 20 21 21 21 19 18 16 15 18 27 29 42 46 48 40 36 41 44 31 30 32 30 34 30 28 29 21 27 18 15 23 23 26 28 28 28 28 27 28 27 26
24 24 22 20 22 20 23 22 21 25 32 32 31 43 44 48 41 40 35 40 36 30 33 35 33 32 30 30 27 25 25 16 14 14 31 34 30 29 29 29 29 29 27
23 24 23 17 21 24 23 24 24 25 31 34 35 42 45 48 42 41 40 39 35 34 33 34 34 33 33 28 25 34 27 25 21 12 13 21 31 33 33 31 29 28 28
23 23 24 22 17 27 27 29 27 27 31 38 40 45 49 49 45 43 40 38 32 28 31 33 35 33 30 29 30 32 37 33 32 27 20 18 21 25 26 27 29 31 30

GFSSE_850_spd_072.txt.gz
Wind_Speed
4 3 3 13 20 21 22 23 24 24 22 20 18 17 19 24 27 27 25 24 22 21 20 21 22 23 23 21 21 21 22 24 26 26 27 27 27 28 28 29 29 28 28
3 1 3 11 19 22 23 24 24 23 20 18 18 19 19 21 24 23 22 21 21 21 20 23 24 24 21 20 20 19 20 25 26 26 26 26 26 26 27 28 27 26 25
3 1 1 9 18 23 24 25 25 24 22 20 19 21 21 21 22 21 20 20 20 20 22 25 25 25 21 19 20 19 23 26 26 26 26 25 24 24 25 24 23 21 20
3 3 4 8 16 22 24 25 26 26 24 21 21 22 23 23 23 22 22 21 21 22 22 25 27 25 22 21 22 25 27 27 27 26 24 24 23 24 22 21 21 21 18
5 9 8 8 12 21 25 26 27 26 24 23 21 22 23 22 23 24 24 23 22 21 25 26 27 27 26 26 27 26 24 22 24 24 25 24 23 23 21 20 19 17 17
4 9 10 9 11 18 26 27 27 28 28 26 24 25 24 25 25 24 24 25 24 23 25 28 29 30 30 28 27 24 22 20 20 23 25 23 23 23 20 17 17 16 16
4 9 12 11 11 13 21 27 29 29 29 27 27 27 27 26 25 27 27 28 26 24 26 30 31 30 32 30 26 25 22 18 17 24 25 23 21 20 17 16 15 15 14
8 10 13 14 14 14 16 23 29 32 33 31 30 28 29 27 26 28 29 28 27 23 27 32 33 36 32 28 24 20 20 16 15 20 23 22 21 19 16 16 16 16 15
8 9 13 15 18 20 20 20 27 31 33 26 20 21 20 27 25 29 28 27 26 23 35 36 38 36 32 27 22 18 16 12 10 17 22 22 21 19 18 18 17 16 17
6 6 11 15 19 22 24 24 25 29 26 25 18 23 24 22 25 28 27 26 25 24 37 39 38 33 28 25 22 19 13 9 10 18 23 22 21 20 19 19 18 18 17
9 9 8 10 15 20 22 22 25 25 26 26 28 29 21 26 31 30 28 27 25 30 38 39 38 33 27 24 21 18 13 7 13 19 20 22 21 20 19 18 17 17 17
13 13 11 11 13 17 21 20 21 19 15 31 36 25 34 26 37 35 30 27 27 34 37 39 39 32 25 25 24 19 12 11 15 16 20 21 21 20 19 18 16 16 16
12 15 12 12 12 14 19 20 20 21 22 29 33 32 37 34 39 36 32 28 30 37 37 40 40 33 27 26 23 19 14 14 12 13 17 21 20 19 18 16 16 16 16
16 13 13 15 15 15 15 16 17 20 22 26 29 35 32 39 41 38 35 32 35 36 37 39 43 36 32 27 18 19 15 12 7 10 17 19 18 18 17 17 17 16 16
14 11 13 13 13 12 15 16 18 19 20 22 27 35 32 39 46 42 37 35 37 37 38 42 44 40 35 22 15 19 17 12 6 7 16 17 18 18 18 18 17 16 15
12 9 10 11 10 11 12 13 14 18 19 23 25 35 32 51 52 44 41 38 38 38 38 42 44 41 37 23 19 19 15 12 9 7 15 17 18 18 18 18 16 15 14
12 10 12 13 15 14 14 13 13 12 15 22 28 30 39 49 46 44 41 40 39 38 40 42 42 40 34 24 21 18 13 13 11 7 13 17 18 18 18 16 15 14 12
15 11 16 16 16 16 13 12 11 11 14 15 26 44 45 47 44 42 40 40 39 37 39 41 43 38 35 27 20 19 16 17 10 8 11 15 17 18 18 16 14 13 13
16 12 18 19 18 17 14 11 14 11 11 22 36 40 40 39 39 39 38 39 38 37 39 40 45 32 34 28 20 18 18 18 12 10 9 13 15 16 16 16 15 14 13
17 13 17 22 20 20 16 16 18 15 15 23 28 30 35 36 36 38 40 40 38 39 38 39 43 32 28 25 22 19 19 17 15 13 11 12 12 13 13 14 14 15 14
19 17 19 21 21 21 18 18 22 24 23 27 27 33 39 40 38 38 39 40 39 40 39 37 36 31 29 26 29 20 18 16 15 15 15 13 15 14 13 15 15 14 15
22 19 19 20 22 20 17 17 26 25 26 26 28 33 40 41 41 38 39 41 39 41 40 34 36 37 34 30 33 29 23 20 20 19 19 18 18 18 17 17 18 19 18
26 23 21 18 18 21 20 16 20 24 24 27 30 41 45 44 39 38 39 44 42 42 42 35 37 38 36 34 30 32 19 14 23 24 24 22 24 25 22 22 23 23 22
29 24 21 19 18 21 21 21 22 23 28 31 35 38 32 39 40 38 38 41 43 40 40 39 36 39 36 37 37 32 26 20 16 16 30 31 30 29 27 27 27 28 27
31 27 24 20 16 21 22 21 23 21 20 22 27 33 38 43 42 40 38 40 44 44 41 37 36 36 37 35 37 34 35 23 16 23 26 30 36 36 34 32 31 30 30
31 27 25 23 18 18 23 22 23 21 20 21 27 29 31 40 42 38 37 40 41 44 36 35 39 39 34 35 35 33 29 31 28 29 24 21 20 22 28 31 33 32 32

GFSSE_850_spd_075.txt.gz
Wind_Speed
11 10 10 15 19 20 20 20 21 20 20 21 22 22 24 26 26 26 26 27 25 23 22 21 22 23 21 18 20 21 19 20 22 23 24 25 25 25 25 26 27 26 26
9 7 7 12 20 21 21 21 22 22 19 18 21 23 28 28 26 26 26 26 23 21 20 22 21 22 21 21 22 21 21 22 23 23 24 25 26 25 26 26 27 27 26
8 6 6 11 18 23 24 24 24 24 22 19 19 20 24 25 26 28 26 24 22 22 22 22 23 23 23 21 21 23 24 24 24 25 25 25 25 24 25 24 24 23 24
5 4 5 10 17 24 26 26 26 26 24 21 20 21 23 25 27 27 26 24 23 22 22 24 23 23 21 21 23 20 23 24 25 24 24 25 24 23 22 22 21 20 20
7 5 5 8 15 24 27 27 27 26 24 23 21 23 24 27 26 26 24 24 23 22 24 24 24 23 21 20 21 22 25 25 23 24 23 21 21 19 20 19 17 17 17
3 4 4 7 12 19 26 28 28 27 25 24 23 24 25 25 25 25 24 23 22 22 24 27 27 25 23 23 24 26 25 23 25 22 21 19 19 19 19 16 15 15 15
4 7 8 9 11 14 21 26 28 27 26 25 25 26 26 26 26 25 24 22 21 23 25 28 28 28 27 27 27 24 22 23 23 21 21 20 19 19 16 15 15 14 13
5 7 9 11 12 12 14 21 25 27 27 27 29 28 26 26 25 26 26 26 26 26 27 29 31 31 30 28 25 23 21 19 18 20 22 20 19 18 17 16 14 14 14
6 7 10 13 16 17 18 17 21 24 25 24 28 26 21 22 19 24 26 27 27 26 28 33 32 30 29 27 24 21 19 16 17 21 21 20 19 17 17 14 15 15 15
8 7 8 13 16 18 21 21 22 24 30 26 21 12 22 18 18 23 23 26 25 24 33 33 31 31 29 26 21 20 16 13 11 17 21 21 20 18 18 16 16 16 16
12 10 10 10 14 17 21 23 23 25 31 31 19 30 23 20 28 23 27 25 25 24 35 35 35 31 26 23 20 18 14 11 13 16 20 20 20 20 18 17 17 17 16
14 13 12 13 13 15 17 23 23 26 29 32 33 30 35 29 31 26 25 25 26 26 36 39 35 30 25 25 22 16 12 10 15 18 20 21 20 19 19 18 18 17 17
13 15 14 14 15 15 16 20 21 21 20 25 30 33 30 32 29 35 30 28 29 33 40 40 35 30 27 26 23 17 11 12 16 17 20 21 20 20 18 18 17 17 16
17 15 14 15 17 16 16 20 21 20 19 17 30 32 31 32 24 34 37 36 33 40 42 41 37 31 26 24 22 16 13 14 14 15 18 22 21 19 17 17 16 15 15
20 16 15 15 17 15 14 16 19 20 21 22 29 36 33 37 37 33 44 39 36 46 45 41 36 32 29 27 22 17 16 13 10 11 14 19 19 18 16 16 16 16 15
20 16 13 14 12 12 13 15 17 19 21 26 32 38 39 38 37 46 45 41 37 47 46 43 35 33 31 25 21 19 16 12 9 8 14 16 15 16 15 16 15 15 14
20 17 12 12 12 12 14 13 17 19 22 26 30 35 39 45 39 49 48 44 39 47 47 45 38 35 32 26 20 21 17 13 10 7 12 14 17 16 16 16 16 15 13
23 18 13 12 14 15 15 15 15 16 15 17 26 31 36 43 41 45 48 42 40 45 45 47 44 38 31 24 23 25 18 15 12 8 10 13 16 17 17 17 16 14 13
24 18 14 14 16 16 16 16 15 13 13 16 20 27 30 39 54 55 49 43 43 44 44 48 45 41 31 25 25 23 18 16 12 9 10 13 15 17 17 16 15 14 13
25 18 15 16 18 18 17 18 14 13 12 11 20 27 31 36 40 45 43 43 43 44 45 48 47 40 34 28 23 19 17 18 14 10 10 11 14 15 16 16 17 16 14
27 22 19 19 21 20 20 18 15 16 9 16 14 26 35 31 36 36 38 40 41 43 44 47 46 38 31 27 23 19 19 19 16 14 12 9 12 14 16 16 17 16 15
30 24 21 21 21 20 21 18 16 18 13 17 23 23 21 27 32 33 36 39 42 41 44 45 46 39 32 28 25 25 23 22 22 20 16 13 13 14 16 17 18 19 18
33 27 22 22 21 20 21 17 18 20 19 22 24 22 29 33 37 37 36 39 41 41 43 43 46 40 37 31 29 24 16 11 25 24 22 18 17 17 20 22 21 21 20
35 28 22 21 19 19 19 19 18 25 27 27 28 26 28 34 37 39 40 39 39 38 40 40 44 42 36 37 34 35 25 15 17 14 26 24 20 22 24 28 27 26 24
37 31 26 22 20 18 18 19 17 24 25 24 25 28 31 36 39 39 40 43 39 38 41 39 37 37 37 38 37 35 33 23 21 20 17 25 23 25 32 32 31 30 28
37 32 28 25 21 18 18 21 20 22 23 27 28 31 29 27 40 42 38 39 39 40 39 41 38 36 38 39 39 37 38 35 26 24 22 22 23 29 28 31 36 33 31

GFSSE_850_spd_078.txt.gz
Wind_Speed
15 13 11 12 15 17 19 19 20 20 20 21 22 23 24 25 24 24 25 24 23 22 21 22 23 22 20 18 18 18 17 18 21 21 22 22 22 21 22 22 23 23 23
13 10 11 14 16 18 19 19 19 20 21 22 21 23 25 24 25 26 27 26 24 23 23 22 21 20 19 17 19 20 20 22 22 21 22 22 22 22 23 23 23 24 23
11 8 8 13 17 19 21 21 21 22 22 23 22 24 26 26 27 27 27 27 25 24 23 22 21 19 18 21 22 20 20 22 22 24 24 24 23 23 24 24 24 24 23
9 8 8 12 17 21 22 22 23 23 22 22 22 23 27 28 28 27 26 26 24 22 21 22 23 22 23 24 21 21 22 22 23 24 25 25 24 23 24 23 22 21 20
9 8 8 11 17 22 23 23 23 22 21 21 22 23 26 28 29 28 27 26 23 20 20 21 22 24 24 22 20 20 22 22 22 23 24 25 24 21 20 19 19 17 16
9 8 8 9 16 21 24 23 23 22 21 21 21 21 28 27 31 29 28 26 22 21 21 22 23 25 25 23 23 22 22 23 23 23 23 22 21 18 16 17 15 16 17
9 7 6 9 13 17 22 23 23 23 23 22 23 24 29 30 31 30 28 26 23 21 24 25 25 26 24 23 23 23 25 22 24 23 20 19 17 18 17 15 14 14 15
9 8 8 10 12 15 18 21 23 23 24 24 24 27 29 30 26 23 26 23 22 23 25 26 27 26 25 24 24 24 22 24 23 20 19 19 18 18 16 14 14 13 14
11 10 10 12 13 14 16 16 20 22 23 22 22 22 20 19 22 23 22 20 21 26 27 27 28 27 26 25 25 22 22 22 20 20 19 20 18 17 16 15 14 12 15
14 12 10 11 12 14 17 18 20 22 23 27 28 25 32 26 22 24 18 23 27 28 28 29 29 27 27 26 23 21 20 19 18 19 20 20 19 17 15 16 17 17 17
19 14 12 11 12 15 17 18 20 23 26 29 27 27 28 24 21 26 24 23 26 28 28 30 29 29 27 24 22 20 18 16 15 17 18 19 19 19 18 18 18 18 18
22 17 13 12 13 15 17 18 21 23 26 28 31 32 25 14 22 29 27 28 28 27 29 31 30 29 27 24 21 19 16 14 15 17 19 19 20 19 18 18 18 18 18
20 17 15 14 16 16 17 18 21 27 27 27 32 31 26 22 29 26 37 31 28 27 32 32 31 30 27 24 23 19 13 12 15 18 19 20 19 18 18 19 18 17 16
23 19 18 16 16 16 17 17 19 22 23 30 34 36 33 30 33 36 32 29 30 30 35 35 34 31 26 24 21 16 12 12 16 17 17 20 19 19 19 18 18 17 16
25 21 20 18 16 16 17 18 20 21 23 22 24 27 30 30 30 36 34 34 33 30 38 37 35 31 27 25 21 15 12 13 14 16 16 18 20 18 18 18 17 15 14
26 22 21 19 15 15 15 16 21 22 22 23 21 27 32 29 35 39 37 37 34 32 38 38 35 31 27 25 21 17 13 12 11 13 14 17 19 19 18 17 16 14 13
27 22 23 19 14 12 14 14 19 21 23 24 23 24 31 34 37 34 34 37 36 34 38 40 35 31 27 27 24 18 16 13 11 12 14 15 17 18 17 16 15 14 12
27 24 24 19 14 12 15 15 15 20 21 24 27 29 34 39 41 39 32 35 41 37 41 42 37 32 32 30 25 22 19 15 12 11 13 13 15 17 16 16 14 13 12
28 25 25 19 14 15 16 15 16 18 20 22 26 30 34 40 44 41 39 42 44 39 44 45 40 36 34 29 23 22 20 17 13 11 11 14 14 15 15 14 14 13 11
30 26 23 19 16 18 17 16 15 15 15 17 18 22 31 34 36 34 44 42 43 38 48 46 41 38 35 29 24 25 21 18 15 11 11 13 14 15 15 16 16 15 13
31 29 26 20 19 20 20 19 18 15 13 11 16 19 28 32 34 47 39 37 41 38 48 47 43 38 34 29 27 27 22 20 19 16 12 11 13 13 14 16 16 16 15
34 33 27 22 20 21 20 18 18 14 12 12 11 10 33 28 34 47 43 41 40 40 47 48 46 41 35 31 32 29 23 21 23 20 17 15 13 12 12 12 14 15 16
38 35 30 23 21 22 20 18 15 13 13 14 15 10 15 20 32 32 31 34 36 38 43 46 48 45 38 35 32 24 15 11 25 24 23 19 17 15 13 13 15 17 18
40 37 29 23 21 22 20 18 17 17 18 19 19 19 17 21 21 30 28 26 29 35 41 44 48 46 42 38 32 31 24 16 19 14 26 24 22 21 18 17 19 20 22
41 37 30 25 21 20 18 16 14 17 20 21 21 19 21 23 25 30 39 33 30 35 39 41 47 46 42 38 38 33 26 22 18 19 21 29 27 26 23 19 23 24 28
41 36 31 27 23 20 18 14 15 14 19 21 20 20 20 20 23 29 38 40 36 33 35 38 41 42 43 39 35 36 36 32 25 22 19 20 30 26 22 22 32 29 29

GFSSE_850_spd_081.txt.gz
Wind_Speed
21 14 10 9 9 11 12 16 20 22 22 20 21 22 24 23 19 18 20 21 20 19 19 20 21 21 21 20 18 16 16 17 19 20 21 21 21 21 22 22 22 23 22
15 12 10 9 11 13 14 16 18 20 22 22 24 23 25 24 21 21 23 23 22 21 20 20 21 20 19 18 18 17 17 19 20 20 21 20 21 21 21 21 22 23 21
15 12 11 11 13 16 18 18 20 20 21 24 25 24 25 27 25 25 24 25 24 23 22 21 20 19 18 19 18 19 19 21 21 23 23 22 22 21 22 22 23 23 22
14 11 10 10 13 18 20 20 20 21 22 23 24 25 26 28 28 26 26 26 26 24 22 21 19 18 18 20 21 20 21 21 23 23 22 23 23 23 23 23 23 23 22
14 11 10 11 14 19 20 20 20 21 22 23 25 26 28 26 26 28 29 27 26 23 21 21 20 19 21 24 21 19 21 22 23 23 24 24 24 24 24 22 21 19 18
13 11 9 11 14 17 20 21 20 21 23 24 25 25 25 27 30 28 28 27 25 22 20 21 21 21 24 23 19 20 21 22 23 23 23 25 23 23 22 21 20 18 17
12 11 9 10 13 16 19 21 21 22 23 23 23 24 25 28 28 27 26 27 24 21 21 22 22 24 25 22 20 22 22 23 22 23 23 23 21 19 18 17 15 17 18
12 11 10 10 12 15 18 21 22 22 22 23 24 26 28 24 25 24 22 21 20 20 23 23 24 26 25 23 21 21 21 21 21 22 21 19 16 17 14 15 14 15 16
15 14 13 12 12 15 17 19 21 21 21 24 24 24 24 24 27 23 19 17 18 19 23 25 25 25 25 23 21 21 21 20 21 21 19 17 18 17 15 14 13 14 14
17 16 14 14 14 16 18 19 21 22 22 24 26 29 28 27 25 27 26 17 19 20 25 26 25 25 25 23 21 21 19 20 19 18 18 17 16 17 15 15 13 15 14
22 19 16 15 15 15 18 19 21 22 25 25 26 28 28 31 31 34 29 27 22 26 29 27 26 25 26 24 23 20 20 20 17 17 16 18 19 17 15 15 15 16 16
25 23 18 16 15 14 17 19 23 23 25 27 28 27 27 28 30 20 20 27 29 31 28 27 26 27 27 26 23 20 19 18 17 18 18 20 19 17 17 18 17 17 17
26 23 19 16 16 14 17 20 22 24 24 27 27 28 27 30 24 20 25 26 32 31 29 27 28 30 30 27 25 22 19 17 16 18 17 18 18 18 18 17 17 16 16
27 24 21 17 17 15 18 20 22 23 24 25 24 25 33 36 29 20 28 25 33 33 31 31 32 32 29 25 21 20 17 16 17 18 18 20 19 18 18 18 17 17 17
30 28 24 18 18 18 19 20 21 21 25 26 25 26 37 36 31 23 29 32 33 26 29 34 36 32 29 24 20 17 14 14 16 18 16 21 20 18 18 18 17 16 15
34 29 27 21 19 18 18 18 20 21 21 21 22 29 33 35 33 29 31 36 35 32 31 37 35 33 28 23 22 18 13 14 17 17 16 18 17 17 17 17 16 15 15
35 31 30 22 20 17 17 16 21 22 22 23 23 25 29 35 31 31 34 37 35 34 31 35 34 32 29 27 23 18 15 15 14 16 16 16 19 18 17 16 16 17 15
33 33 30 24 21 17 16 17 20 23 23 23 23 25 24 27 31 31 35 40 37 35 32 34 36 33 29 28 25 21 19 15 14 16 15 16 16 17 18 17 17 15 13
31 31 31 25 22 17 17 17 17 21 23 24 25 26 25 27 35 35 41 38 39 37 35 39 37 35 32 30 27 22 20 16 15 15 14 15 15 16 15 17 14 14 13
32 29 29 25 23 19 19 19 20 19 21 23 25 29 30 31 33 38 40 39 38 39 37 41 39 35 31 30 28 23 22 20 18 16 15 14 16 17 17 16 17 15 13
31 32 31 29 25 21 21 22 23 22 21 20 21 22 24 32 39 41 40 44 36 35 40 42 41 38 33 33 29 25 22 19 19 17 15 16 16 16 17 17 17 16 14
31 35 33 30 26 22 22 21 21 19 17 15 16 15 22 25 31 40 41 41 40 37 41 44 45 40 35 35 29 21 14 17 21 21 20 19 18 18 19 18 18 16 14
32 38 35 33 27 23 21 19 19 16 15 14 16 14 15 18 31 34 35 41 41 39 44 42 47 45 40 36 31 17 11 10 16 21 23 22 20 19 18 20 20 15 12
34 37 36 33 27 23 22 21 20 18 16 17 14 11 6 7 12 30 38 38 32 33 41 40 47 44 43 40 33 30 20 15 13 11 25 24 22 22 21 20 19 21 18
32 37 38 33 28 23 23 19 19 17 16 17 17 14 9 12 15 14 34 39 30 30 36 37 45 43 42 40 39 36 27 20 15 17 15 26 27 27 27 25 24 22 22
29 37 38 33 28 23 21 17 16 16 17 20 19 18 17 18 19 18 23 27 28 26 26 31 37 41 42 41 40 38 34 27 22 20 20 18 28 32 31 31 28 26 23

GFSSE_850_spd_084.txt.gz
Wind_Speed
19 15 11 7 8 10 12 16 18 19 18 18 19 21 20 20 19 17 17 17 19 19 18 19 18 18 18 17 17 15 14 15 17 17 19 20 20 21 21 22 21 22 22
17 13 9 6 7 8 11 14 17 21 20 20 21 24 22 22 21 19 20 20 20 20 18 18 19 19 19 18 16 14 16 18 19 20 20 20 20 21 21 21 21 22 21
14 12 10 8 9 11 13 15 17 19 20 21 23 25 25 25 23 23 22 22 22 20 19 19 20 20 18 17 16 16 17 19 20 19 19 18 20 20 19 18 21 21 20
17 13 9 9 12 13 15 15 16 17 18 19 23 25 26 26 25 24 23 23 23 21 20 21 20 19 17 18 17 18 20 20 21 22 18 20 20 20 20 21 21 21 20
17 12 10 9 11 14 15 16 16 17 17 20 24 26 27 28 26 23 24 25 23 23 22 19 20 18 18 18 19 19 20 21 22 19 18 19 20 22 22 21 20 21 20
17 13 10 9 10 12 14 17 18 18 18 21 24 26 26 25 24 26 27 25 23 21 21 19 17 18 19 22 21 19 19 21 19 18 19 21 21 23 24 23 21 19 18
16 14 12 8 8 12 15 17 18 19 19 21 23 22 22 23 27 26 25 22 21 21 20 19 18 18 22 23 20 19 19 20 18 16 18 20 20 22 21 19 17 16 16
16 14 12 10 10 11 15 17 19 20 21 21 21 21 22 23 22 22 22 20 19 18 18 19 18 19 23 22 19 19 18 19 17 17 16 16 21 19 17 16 15 15 16
19 16 14 12 11 12 14 18 19 21 21 21 22 22 22 22 24 27 22 23 21 15 17 18 19 20 24 22 20 20 20 19 15 14 14 15 17 16 16 16 15 16 17
21 19 17 14 13 14 15 18 20 21 21 21 23 22 24 27 27 28 27 23 23 19 15 17 20 22 24 23 22 20 19 19 13 13 10 13 13 16 16 16 16 16 16
24 23 21 17 15 16 16 17 20 22 23 22 22 24 25 26 30 28 30 33 25 24 22 21 23 23 25 23 21 19 17 14 14 11 12 13 14 16 16 15 14 14 13
22 23 22 20 18 18 18 19 19 20 23 25 26 24 25 27 28 29 32 30 24 23 27 24 27 23 25 24 22 19 16 13 12 10 13 14 15 14 14 14 13 14 15
19 25 24 22 19 19 18 20 21 24 23 25 26 26 26 25 28 28 28 27 25 25 28 28 27 25 27 23 22 20 14 13 11 11 15 16 16 14 14 15 15 15 15
23 26 25 23 21 20 18 19 21 24 25 26 25 26 27 28 26 25 30 29 25 28 32 32 30 30 25 24 21 17 14 13 12 11 13 17 14 16 15 16 15 15 15
26 23 28 26 23 21 20 19 22 23 24 22 22 25 25 28 27 27 26 22 29 30 32 35 33 31 26 21 18 16 15 14 14 13 11 17 16 15 16 16 17 16 16
27 25 29 29 25 22 20 20 22 22 21 22 21 23 23 26 29 28 24 24 30 33 41 35 33 30 23 19 18 17 15 13 14 14 12 20 19 16 16 16 15 15 15
27 26 31 31 27 23 19 18 22 22 22 22 21 22 25 30 37 29 25 23 28 25 31 33 30 25 21 20 19 17 14 14 15 15 13 15 17 15 16 15 15 15 15
24 28 30 31 28 24 20 19 19 22 23 22 22 22 23 30 37 35 29 27 32 33 32 30 27 23 23 21 19 17 14 14 15 15 15 13 16 15 17 16 16 16 16
24 27 30 31 28 25 24 19 19 19 24 23 24 24 24 28 31 34 35 30 32 36 36 33 28 24 23 22 20 17 15 14 14 13 15 15 14 16 14 18 18 17 16
22 25 27 29 28 27 24 19 20 19 24 24 25 25 25 27 26 27 31 33 35 38 36 33 32 25 24 23 21 18 16 14 14 15 15 15 15 14 14 15 18 17 18
21 24 27 30 29 29 26 23 23 21 23 25 27 28 27 28 30 28 35 36 36 41 38 38 36 28 27 25 22 19 15 13 15 13 15 15 16 16 17 16 15 15 17
21 24 29 32 31 31 26 23 24 23 20 19 19 22 26 28 30 33 32 40 41 41 42 41 41 33 29 28 26 21 15 12 15 16 16 15 16 16 18 19 18 19 18
23 26 30 33 33 31 25 23 18 18 18 19 19 20 21 23 27 32 36 36 50 43 45 46 46 39 34 30 27 22 13 12 16 16 17 15 16 17 17 20 21 22 21
24 25 29 32 31 30 26 23 18 17 19 15 19 17 14 17 20 24 37 37 37 45 44 39 47 43 31 33 28 25 18 14 22 13 18 18 17 19 20 20 21 23 24
23 26 26 32 31 30 25 19 17 16 15 12 14 15 12 10 8 8 26 31 35 48 44 38 43 42 35 33 31 27 20 16 16 15 13 19 19 20 21 22 22 22 25
23 26 30 36 35 29 25 20 18 17 15 15 16 16 12 8 7 8 18 33 30 41 40 43 42 42 37 32 32 30 25 23 20 17 13 14 17 18 22 23 26 27 25

GFSSE_850_spd_087.txt.gz
Wind_Speed
8 9 11 9 8 9 10 11 12 13 13 14 15 14 14 15 14 12 12 12 14 15 16 17 17 17 16 16 15 14 13 13 14 15 17 18 19 19 20 20 18 20 20
12 10 8 6 7 9 11 13 13 14 14 15 16 16 17 17 17 15 14 14 16 16 15 17 16 16 16 15 14 12 12 13 14 16 18 19 21 22 21 20 19 21 20
14 10 9 7 6 8 11 14 16 15 15 16 15 17 18 19 18 17 17 16 17 17 15 16 16 16 16 15 14 13 13 14 15 17 16 17 19 20 20 18 20 20 19
14 13 10 6 7 9 10 13 15 16 16 16 16 18 21 21 21 19 18 18 19 17 16 16 17 16 16 15 15 14 14 16 16 17 17 18 19 18 17 19 19 18 19
15 13 9 7 7 7 10 11 13 14 15 16 16 18 21 22 23 21 19 21 20 18 17 17 17 16 16 16 16 14 15 17 18 15 18 17 18 18 20 19 20 20 19
15 12 9 9 7 7 10 12 13 14 15 16 17 18 20 21 20 20 20 22 20 19 18 18 16 15 16 16 15 15 18 20 14 15 17 18 19 21 22 21 20 19 19
16 14 11 10 8 8 10 12 13 14 15 16 16 16 17 20 21 22 22 22 21 19 17 15 16 15 15 16 16 16 18 19 16 15 18 18 22 22 21 20 19 16 16
15 16 13 11 9 9 11 12 14 15 16 15 15 15 17 20 22 21 20 19 17 17 15 14 14 11 15 18 18 17 20 18 13 14 16 18 21 20 19 17 15 14 14
15 16 15 14 12 11 12 14 16 17 17 16 14 17 18 20 21 21 23 23 22 15 12 12 13 12 16 19 19 18 18 16 14 14 16 16 20 18 16 14 14 13 13
16 17 18 17 15 13 14 15 17 18 18 18 17 19 20 21 22 25 27 24 18 14 15 13 12 13 16 20 19 18 17 15 15 12 12 14 18 14 12 13 14 14 15
16 17 20 19 17 15 13 15 18 20 20 21 21 21 21 22 24 25 27 25 20 23 22 17 15 15 19 20 19 19 18 13 11 14 14 9 11 13 14 15 16 14 15
19 18 16 21 19 17 14 14 17 19 21 22 23 22 22 24 26 28 28 27 21 27 26 28 24 17 20 23 22 19 17 17 15 11 11 11 11 11 12 16 15 15 15
22 19 18 18 21 19 18 13 12 15 18 21 21 22 20 23 24 26 30 34 26 25 26 25 24 21 26 26 25 22 15 19 13 10 13 12 13 11 13 13 13 13 13
25 24 22 19 22 18 14 15 14 20 21 19 22 22 22 24 24 25 27 26 29 30 27 28 33 27 28 27 25 22 21 15 15 13 11 13 13 11 11 12 14 13 13
28 26 25 23 22 20 22 20 19 20 23 24 24 22 23 23 26 22 24 26 28 29 27 29 31 32 30 25 24 23 19 15 14 11 10 14 12 12 12 13 13 14 13
25 28 25 24 24 24 22 21 22 21 21 24 24 22 24 25 24 24 23 24 29 27 29 28 30 29 30 26 23 20 16 15 14 12 10 16 16 13 14 14 14 13 14
26 26 27 25 24 24 22 20 22 22 21 22 22 21 22 25 22 27 25 27 27 23 27 25 34 28 28 23 21 20 19 15 16 15 12 13 17 15 14 15 13 15 15
26 27 28 25 26 25 20 18 15 17 19 21 20 22 22 22 22 25 28 29 23 21 24 33 35 33 28 26 26 21 17 15 16 16 14 14 16 15 17 16 15 13 14
27 27 30 28 26 25 21 19 17 17 18 22 22 22 23 23 26 26 28 28 23 21 22 22 36 31 27 26 25 21 17 16 17 16 16 14 15 16 15 19 17 16 16
27 26 29 28 25 25 21 20 19 19 16 22 24 21 20 22 24 27 31 31 26 26 29 30 29 28 24 24 26 22 18 17 15 15 16 14 15 13 15 17 20 18 19
23 27 30 29 27 26 30 26 22 21 17 21 23 22 23 24 24 26 27 31 29 36 32 36 36 32 28 28 25 26 20 21 19 20 17 16 16 14 15 18 13 15 17
24 27 29 28 27 33 30 21 20 17 15 15 21 22 25 26 26 26 26 24 32 33 31 39 41 37 32 32 29 31 16 17 16 18 19 20 17 16 17 17 14 15 15
24 26 29 28 27 28 22 20 16 14 14 16 17 18 18 20 22 24 27 29 32 39 32 41 41 41 38 33 31 30 16 13 18 19 19 20 20 18 18 19 20 19 19
25 25 27 28 28 27 24 22 20 18 16 15 15 15 16 22 20 23 25 28 32 35 40 39 43 45 39 36 32 25 17 16 24 14 18 20 21 22 21 20 19 19 20
28 26 27 28 28 28 26 23 20 17 13 14 14 17 16 20 19 22 25 32 35 36 47 46 48 49 41 39 37 30 22 16 22 18 18 21 18 19 19 20 18 20 22
30 27 27 28 29 30 28 23 20 18 15 14 15 18 18 15 15 16 16 16 31 34 45 47 46 51 41 37 35 32 25 22 17 18 15 24 25 20 20 18 19 21 22